[{"header": {"parameterCategory": 1, "parameterNumber": 2, "dx": 0.06612293990616946, "dy": 0.0552356325346848, "nx": 98, "ny": 59, "la1": 35.046912555036876, "la2": 31.78801023549047, "lo1": -121.43107172385933, "lo2": -114.95102361305473, "refTime": "2026041218"}, "data": [26.37, 26.37, 25.93, 25.93, 25.93, 25.48, 25.48, 25.48, 25.48, 25.48, 25.48, 25.48, 25.03, 25.03, 25.03, 25.03, 25.03, 25.03, 25.03, 25.03, 25.03, 25.03, 25.03, 24.59, 24.59, 24.14, 24.14, 24.14, 23.69, 23.69, 23.25, 22.8, 22.8, 23.25, 23.69, 24.59, 25.03, 25.03, 25.03, 25.03, 24.59, 24.59, 24.59, 24.59, 25.03, 25.03, 25.48, 25.48, 25.48, 25.48, 25.03, 25.03, 25.03, 25.03, 25.03, 25.03, 25.03, 25.03, 25.48, 25.48, 25.93, 26.37, 26.37, 26.37, 26.37, 25.93, 25.93, 25.48, 25.48, 25.48, 25.48, 25.93, 25.93, 25.93, 25.93, 25.93, 25.48, 24.59, 23.69, 23.69, 23.69, 24.14, 24.14, 24.14, 24.14, 24.14, 24.14, 24.14, 23.69, 23.69, 23.69, 23.69, 23.25, 23.25, 23.25, 22.8, 22.8, 22.8, 26.82, 26.82, 26.37, 26.37, 26.37, 25.93, 25.93, 25.93, 25.93, 25.93, 25.93, 25.48, 25.48, 25.48, 25.48, 25.48, 25.48, 25.03, 25.03, 25.48, 25.48, 25.48, 25.48, 25.48, 25.03, 24.59, 24.59, 24.59, 24.59, 24.59, 23.69, 23.25, 22.8, 22.35, 23.25, 24.14, 25.48, 25.93, 25.93, 25.48, 25.48, 25.03, 25.48, 25.48, 25.93, 25.93, 26.37, 25.93, 25.93, 25.93, 25.48, 25.48, 25.48, 25.48, 25.48, 25.48, 25.48, 25.48, 25.93, 26.37, 26.37, 26.82, 27.27, 26.82, 26.37, 25.93, 25.93, 25.93, 25.48, 25.48, 25.48, 25.93, 25.93, 26.37, 26.37, 25.93, 25.48, 24.59, 23.69, 23.69, 23.69, 24.14, 24.14, 24.14, 24.14, 24.14, 24.14, 24.14, 23.69, 23.69, 23.69, 23.69, 23.25, 23.25, 23.25, 22.8, 22.8, 22.8, 27.27, 27.27, 26.82, 26.82, 26.82, 26.82, 26.37, 26.37, 26.37, 26.37, 26.37, 25.93, 25.93, 25.93, 25.93, 25.48, 25.48, 25.48, 25.48, 25.48, 25.93, 25.93, 25.93, 25.93, 25.93, 25.93, 25.03, 25.03, 25.03, 25.03, 25.03, 24.59, 23.69, 22.8, 22.8, 23.25, 24.14, 25.03, 25.48, 25.93, 25.93, 25.93, 25.93, 26.37, 26.37, 26.37, 26.37, 26.37, 26.37, 26.37, 25.93, 25.93, 25.93, 25.93, 25.93, 25.93, 25.93, 26.37, 26.37, 26.82, 27.27, 27.27, 27.27, 26.82, 26.37, 26.37, 25.93, 25.93, 25.48, 25.48, 25.48, 25.48, 25.93, 26.37, 26.37, 25.93, 25.03, 24.59, 23.69, 23.69, 24.14, 24.14, 24.14, 24.14, 24.14, 24.14, 24.14, 24.14, 23.69, 23.69, 23.69, 23.69, 23.25, 23.25, 23.25, 22.8, 22.8, 22.8, 27.72, 27.72, 27.72, 27.27, 27.27, 27.27, 26.82, 26.82, 26.82, 26.82, 26.82, 26.37, 26.37, 26.37, 25.93, 25.93, 25.93, 25.93, 25.93, 25.93, 25.93, 26.37, 26.37, 26.37, 26.37, 26.37, 25.93, 25.48, 25.48, 25.48, 25.03, 25.48, 25.03, 24.14, 23.69, 23.69, 23.25, 23.69, 24.59, 25.48, 25.48, 25.93, 25.93, 25.93, 26.37, 26.37, 26.37, 26.37, 26.37, 26.37, 26.37, 26.37, 26.37, 26.37, 26.37, 26.37, 26.82, 26.82, 26.82, 27.27, 27.72, 27.72, 27.72, 27.27, 26.82, 26.37, 25.93, 25.93, 25.48, 25.48, 25.03, 25.48, 25.93, 25.93, 25.93, 25.48, 25.03, 24.59, 24.14, 24.14, 24.14, 24.14, 24.14, 24.14, 24.14, 23.69, 23.69, 24.14, 23.69, 23.69, 23.69, 23.69, 23.69, 23.25, 23.25, 22.8, 22.8, 22.8, 28.16, 28.16, 27.72, 27.72, 27.72, 27.72, 27.27, 27.27, 27.27, 27.27, 26.82, 26.82, 26.82, 26.37, 26.37, 26.37, 26.37, 26.37, 26.37, 26.37, 26.37, 26.37, 26.82, 26.82, 26.82, 26.37, 26.37, 26.37, 25.48, 25.03, 25.03, 25.48, 25.93, 25.48, 25.03, 25.48, 24.59, 23.25, 24.14, 24.59, 25.03, 25.48, 25.48, 25.48, 25.48, 25.93, 26.37, 26.37, 26.82, 26.82, 26.82, 26.82, 26.82, 26.82, 26.82, 26.82, 27.27, 27.27, 27.27, 27.72, 28.16, 28.16, 27.72, 27.27, 26.82, 26.37, 26.37, 25.93, 25.93, 25.48, 25.03, 25.03, 25.48, 25.93, 25.93, 25.48, 25.03, 24.59, 24.14, 24.14, 24.14, 24.14, 24.14, 24.14, 24.14, 23.69, 23.69, 23.69, 24.14, 24.14, 24.14, 23.69, 23.69, 23.69, 23.25, 22.8, 22.8, 22.8, 28.61, 28.61, 28.16, 28.16, 28.16, 27.72, 27.72, 27.72, 27.72, 27.27, 27.27, 27.27, 27.27, 26.82, 26.82, 26.82, 26.37, 26.37, 26.82, 26.82, 26.82, 26.82, 27.27, 27.27, 27.27, 27.72, 27.27, 27.27, 26.82, 25.93, 25.93, 25.93, 25.93, 25.93, 25.93, 26.37, 25.93, 25.03, 25.48, 25.48, 25.48, 25.48, 25.48, 25.48, 25.48, 25.48, 25.48, 25.93, 26.37, 26.82, 26.82, 26.82, 26.82, 26.82, 26.82, 26.82, 27.27, 27.72, 27.72, 28.16, 28.16, 28.16, 27.72, 27.27, 26.82, 26.37, 25.93, 25.93, 25.93, 25.93, 25.48, 25.48, 25.48, 25.48, 25.48, 25.48, 25.03, 24.59, 24.14, 24.14, 24.14, 23.69, 23.69, 23.69, 23.69, 23.69, 23.69, 23.69, 24.14, 24.14, 24.14, 23.69, 23.69, 23.69, 23.25, 22.8, 22.8, 22.8, 29.06, 28.61, 28.61, 28.61, 28.16, 28.16, 28.16, 28.16, 27.72, 27.72, 27.72, 27.72, 27.27, 27.27, 27.27, 27.27, 26.82, 26.82, 26.82, 27.27, 27.27, 27.72, 27.72, 27.72, 27.72, 28.16, 28.16, 28.16, 28.16, 27.72, 26.82, 26.82, 26.37, 25.93, 25.93, 26.37, 26.37, 25.93, 26.37, 26.37, 26.37, 26.37, 26.37, 26.37, 26.37, 26.37, 25.48, 25.48, 25.93, 26.37, 26.37, 26.82, 26.82, 26.82, 27.27, 27.27, 27.27, 27.72, 28.16, 28.16, 28.61, 28.16, 27.72, 27.27, 27.27, 26.37, 25.93, 25.93, 26.37, 25.93, 25.93, 25.93, 25.93, 25.48, 25.48, 25.48, 25.03, 25.03, 24.59, 23.69, 23.69, 23.25, 23.25, 23.25, 23.69, 23.69, 24.14, 24.14, 23.69, 23.69, 23.69, 23.69, 23.69, 23.69, 23.25, 22.8, 22.8, 22.8, 29.06, 29.06, 29.06, 28.61, 28.61, 28.61, 28.61, 28.16, 28.16, 28.16, 28.16, 28.16, 27.72, 27.27, 27.72, 27.72, 27.27, 27.27, 27.27, 27.27, 27.27, 27.72, 28.16, 28.16, 28.16, 28.16, 28.61, 29.06, 29.06, 28.61, 28.16, 28.16, 27.72, 27.27, 27.27, 27.27, 27.27, 26.82, 26.82, 27.27, 27.27, 27.27, 27.72, 27.72, 27.72, 27.72, 26.82, 26.37, 25.93, 26.37, 26.82, 26.82, 26.82, 27.27, 27.27, 27.27, 27.72, 28.16, 28.61, 28.61, 28.61, 28.16, 28.16, 27.72, 27.72, 26.82, 26.37, 25.93, 26.37, 26.37, 26.37, 26.37, 25.93, 25.93, 25.48, 25.48, 25.48, 25.03, 24.59, 23.69, 23.69, 23.25, 23.25, 23.69, 23.69, 24.14, 23.69, 23.69, 23.25, 23.25, 23.69, 23.69, 23.69, 23.25, 22.8, 22.8, 22.8, 22.8, 29.5, 29.06, 29.06, 29.06, 29.06, 28.61, 28.61, 28.61, 28.61, 28.61, 28.61, 28.61, 28.16, 27.72, 27.72, 27.72, 27.72, 27.72, 27.72, 27.72, 27.72, 27.72, 28.16, 28.61, 28.61, 28.16, 29.06, 29.5, 29.06, 28.61, 28.61, 29.06, 29.06, 28.61, 28.61, 28.16, 28.16, 27.72, 27.27, 27.72, 28.16, 28.16, 28.61, 28.61, 29.06, 28.61, 28.61, 27.72, 27.27, 27.27, 27.27, 27.72, 27.72, 27.72, 27.72, 27.72, 27.72, 28.16, 28.61, 29.06, 28.61, 28.61, 28.16, 28.16, 27.72, 27.27, 26.37, 25.93, 26.37, 26.82, 26.82, 26.82, 26.37, 25.93, 25.48, 25.48, 25.48, 25.03, 24.59, 23.69, 23.69, 23.69, 23.69, 24.14, 24.14, 24.14, 23.69, 23.25, 23.25, 23.25, 23.25, 23.69, 23.69, 23.25, 22.8, 22.8, 22.8, 22.8, 29.5, 29.5, 29.5, 29.06, 29.06, 29.06, 29.06, 29.06, 28.61, 28.61, 28.61, 28.61, 28.61, 28.16, 28.16, 28.16, 28.16, 28.16, 28.16, 28.16, 28.61, 28.16, 28.16, 29.06, 29.06, 28.61, 29.06, 29.5, 29.06, 28.61, 29.06, 29.5, 29.06, 29.06, 29.06, 28.61, 28.61, 29.06, 28.61, 28.16, 28.61, 28.61, 29.06, 29.5, 29.5, 29.5, 29.5, 29.06, 28.61, 28.16, 28.16, 28.16, 28.16, 28.16, 28.16, 27.72, 27.72, 28.16, 28.61, 29.06, 28.61, 28.61, 28.61, 28.61, 28.16, 27.27, 26.37, 25.93, 25.93, 26.37, 26.82, 26.82, 26.37, 25.93, 25.48, 25.48, 25.03, 24.59, 24.14, 23.69, 23.69, 23.69, 24.14, 24.59, 24.59, 24.59, 24.14, 23.69, 23.25, 22.8, 22.8, 23.25, 23.69, 23.25, 22.8, 22.8, 22.8, 22.8, 29.95, 29.5, 29.5, 29.5, 29.5, 29.06, 29.06, 29.06, 29.06, 29.06, 29.06, 28.61, 28.61, 28.61, 28.61, 28.61, 28.61, 28.61, 28.61, 28.61, 28.61, 28.61, 28.61, 29.06, 29.06, 29.06, 28.61, 29.06, 29.06, 28.61, 28.61, 29.06, 29.5, 29.06, 29.06, 28.61, 28.61, 29.5, 29.06, 29.06, 29.06, 29.06, 29.5, 29.5, 29.95, 29.95, 29.95, 29.5, 29.5, 29.06, 29.06, 28.61, 28.61, 28.61, 28.16, 27.72, 27.27, 27.27, 28.16, 28.16, 28.16, 28.16, 28.16, 28.16, 27.72, 27.27, 26.37, 25.48, 25.48, 25.93, 26.37, 26.82, 26.37, 25.93, 25.48, 25.03, 24.59, 24.14, 24.14, 23.69, 23.69, 24.14, 24.14, 24.59, 24.59, 24.59, 24.59, 24.14, 23.69, 23.25, 23.25, 23.25, 23.69, 23.25, 22.8, 22.8, 22.8, 22.8, 29.95, 29.95, 29.95, 29.5, 29.5, 29.5, 29.5, 29.5, 29.06, 29.06, 29.06, 29.06, 29.06, 29.06, 29.06, 29.06, 29.06, 29.06, 29.06, 29.06, 29.06, 29.06, 29.06, 29.06, 29.06, 29.06, 29.06, 29.06, 29.5, 29.06, 28.61, 29.06, 29.5, 29.06, 29.06, 29.06, 29.06, 29.5, 29.5, 29.5, 29.5, 29.5, 29.5, 29.95, 30.4, 30.4, 30.4, 30.4, 29.95, 29.95, 29.95, 29.95, 29.5, 29.06, 29.06, 28.16, 27.27, 26.37, 26.37, 27.27, 27.72, 27.27, 27.72, 27.72, 27.27, 26.82, 26.37, 25.03, 24.59, 24.14, 25.03, 25.93, 25.93, 25.93, 25.48, 25.03, 24.59, 24.14, 23.69, 24.14, 24.14, 24.59, 24.14, 24.59, 24.59, 24.59, 24.59, 24.59, 24.14, 24.14, 23.69, 23.69, 23.69, 23.25, 22.8, 23.25, 23.25, 23.25, 29.95, 29.95, 29.95, 29.95, 29.5, 29.5, 29.5, 29.5, 29.5, 29.5, 29.5, 29.06, 29.06, 29.06, 29.5, 29.5, 29.06, 29.06, 29.06, 29.06, 29.06, 29.06, 29.06, 29.06, 29.06, 29.06, 29.06, 29.06, 29.5, 29.5, 29.06, 29.06, 29.06, 29.06, 29.5, 29.5, 29.5, 29.5, 29.5, 29.5, 29.5, 29.95, 29.95, 30.4, 30.4, 30.4, 30.4, 30.4, 30.4, 30.4, 30.4, 29.95, 29.95, 29.95, 29.95, 29.5, 29.06, 27.72, 27.27, 27.72, 28.16, 27.72, 27.72, 27.72, 27.27, 27.27, 26.82, 25.93, 24.59, 23.25, 23.25, 24.14, 25.03, 25.48, 25.48, 25.03, 24.59, 24.14, 24.14, 24.14, 24.59, 24.59, 24.59, 25.03, 24.59, 24.59, 24.59, 25.03, 24.59, 24.14, 24.14, 24.14, 23.69, 23.69, 23.25, 23.25, 23.25, 23.25, 30.4, 29.95, 29.95, 29.95, 29.5, 29.5, 29.5, 29.5, 29.5, 29.5, 29.5, 29.5, 29.5, 29.5, 29.5, 29.5, 29.5, 29.5, 29.5, 29.5, 29.5, 29.5, 29.5, 29.5, 29.06, 29.5, 29.5, 29.5, 29.5, 29.5, 29.06, 29.06, 29.06, 29.06, 29.5, 29.5, 29.5, 29.5, 29.95, 29.95, 29.95, 29.95, 29.95, 30.4, 30.4, 30.4, 30.4, 30.4, 30.4, 30.4, 30.4, 29.95, 29.95, 29.95, 29.95, 29.95, 29.95, 29.06, 28.16, 28.61, 29.5, 29.06, 29.06, 28.61, 28.16, 28.16, 27.72, 27.27, 25.93, 24.59, 23.25, 22.8, 24.14, 25.48, 25.93, 25.48, 25.03, 24.59, 24.59, 24.59, 25.03, 25.03, 25.03, 25.48, 25.03, 24.59, 24.59, 25.03, 24.59, 24.14, 24.14, 24.14, 24.14, 24.14, 23.69, 23.69, 23.69, 23.69, 30.4, 30.4, 29.95, 29.95, 29.95, 29.95, 29.95, 29.95, 29.95, 29.95, 29.5, 29.5, 29.95, 29.95, 29.95, 29.95, 29.5, 29.5, 29.5, 29.5, 29.5, 29.5, 29.5, 29.5, 29.5, 29.5, 29.5, 29.5, 29.5, 29.5, 29.5, 29.5, 29.06, 29.06, 29.5, 29.5, 29.5, 29.5, 29.5, 29.95, 29.95, 29.95, 29.95, 30.4, 30.4, 30.4, 30.4, 30.4, 30.4, 30.4, 29.95, 29.95, 29.95, 29.95, 29.95, 29.95, 29.95, 29.5, 28.61, 29.06, 29.5, 29.95, 29.5, 29.06, 29.06, 29.06, 28.61, 28.16, 27.27, 25.93, 24.14, 22.8, 23.69, 25.48, 26.37, 25.93, 25.48, 25.48, 25.48, 25.48, 25.03, 25.03, 25.48, 25.48, 25.48, 25.03, 24.59, 24.59, 24.59, 24.14, 24.14, 24.59, 24.59, 24.14, 24.14, 24.14, 23.69, 23.69, 30.4, 30.4, 29.95, 29.95, 29.95, 29.95, 29.95, 29.95, 29.95, 29.95, 29.95, 29.95, 29.95, 29.95, 29.95, 29.95, 29.95, 29.95, 29.5, 29.5, 29.5, 29.5, 29.5, 29.5, 29.5, 29.5, 29.5, 29.5, 29.5, 29.5, 29.5, 29.5, 29.5, 29.5, 29.5, 29.5, 29.5, 29.5, 29.5, 29.95, 29.95, 29.95, 30.4, 30.4, 29.95, 29.95, 29.95, 29.95, 29.95, 29.95, 29.95, 29.5, 29.5, 29.95, 29.95, 29.95, 29.5, 29.5, 29.06, 29.06, 29.06, 29.5, 29.5, 29.06, 29.06, 29.06, 29.06, 28.61, 28.16, 27.27, 25.48, 23.25, 23.25, 25.03, 26.37, 26.37, 25.93, 25.93, 25.93, 25.48, 25.03, 25.03, 25.03, 25.48, 25.03, 25.03, 24.59, 24.59, 24.59, 24.14, 24.14, 25.03, 24.59, 24.14, 24.59, 24.14, 23.69, 23.69, 30.4, 30.4, 30.4, 29.95, 29.95, 29.95, 29.95, 29.95, 29.95, 29.95, 29.95, 29.95, 30.4, 30.4, 30.4, 29.95, 29.95, 29.95, 29.95, 29.95, 29.5, 29.5, 29.5, 29.5, 29.5, 29.5, 29.5, 29.5, 29.5, 29.5, 29.5, 29.5, 29.5, 29.5, 29.5, 29.5, 29.5, 29.5, 29.5, 29.95, 29.95, 29.95, 29.95, 29.95, 29.95, 29.95, 29.95, 29.5, 29.5, 29.5, 29.5, 29.95, 29.5, 29.5, 29.5, 29.5, 29.5, 29.5, 29.06, 29.06, 28.61, 29.06, 29.06, 29.06, 28.61, 29.06, 29.06, 29.06, 28.61, 28.16, 25.93, 23.69, 23.69, 25.03, 26.37, 26.37, 26.37, 25.93, 25.93, 25.93, 25.03, 25.03, 25.03, 25.03, 25.03, 25.03, 25.03, 24.59, 24.59, 24.59, 24.59, 25.03, 24.59, 24.14, 24.14, 24.14, 24.14, 24.14, 30.4, 30.4, 30.4, 30.4, 30.4, 30.4, 30.4, 30.4, 30.4, 29.95, 30.4, 30.4, 30.4, 30.4, 30.4, 30.4, 29.95, 29.95, 29.95, 29.95, 29.5, 29.5, 29.95, 29.5, 29.5, 29.5, 29.95, 29.95, 29.5, 29.5, 29.5, 29.5, 29.5, 29.5, 29.5, 29.5, 29.5, 29.5, 29.5, 29.5, 29.95, 29.95, 29.95, 29.95, 29.95, 29.5, 29.5, 29.5, 29.5, 29.5, 29.5, 29.95, 29.95, 29.5, 29.5, 29.5, 29.06, 29.06, 29.06, 29.06, 28.61, 28.61, 28.61, 28.61, 28.61, 28.61, 29.06, 29.06, 29.06, 28.61, 26.82, 24.59, 24.14, 25.03, 26.37, 26.82, 26.82, 26.37, 26.37, 26.37, 25.48, 25.03, 25.03, 25.03, 25.03, 25.03, 25.03, 25.03, 25.03, 24.59, 24.59, 24.59, 24.59, 24.14, 24.14, 24.14, 24.14, 24.14, 30.4, 30.4, 30.4, 30.4, 30.4, 30.4, 30.4, 30.4, 30.4, 30.4, 30.4, 30.4, 30.4, 30.4, 30.4, 30.4, 30.4, 30.4, 29.95, 29.95, 29.5, 29.95, 29.95, 29.95, 29.5, 29.5, 29.95, 29.95, 29.95, 29.5, 29.5, 29.5, 29.5, 29.5, 29.5, 29.5, 29.5, 29.5, 29.5, 29.5, 29.95, 29.95, 29.95, 29.95, 29.5, 29.5, 29.06, 29.06, 29.06, 29.06, 29.5, 29.5, 29.5, 29.5, 29.5, 29.06, 29.06, 29.06, 29.06, 28.61, 28.61, 28.61, 28.61, 28.61, 28.16, 28.61, 28.61, 28.61, 29.06, 28.61, 27.27, 25.03, 24.14, 25.03, 26.37, 27.27, 27.27, 26.82, 26.37, 26.37, 25.48, 25.48, 25.48, 25.48, 25.48, 25.03, 25.03, 25.03, 25.03, 25.03, 24.59, 24.59, 24.59, 24.59, 24.14, 24.14, 24.14, 24.14, 30.4, 30.4, 30.4, 30.4, 30.4, 30.4, 30.4, 30.4, 30.4, 30.4, 30.4, 30.4, 30.4, 30.4, 30.4, 30.4, 30.4, 30.4, 29.95, 29.5, 29.5, 29.95, 29.95, 29.95, 29.5, 29.5, 29.95, 29.95, 29.95, 29.5, 29.5, 29.5, 29.5, 29.5, 29.5, 29.5, 29.5, 29.5, 29.5, 29.5, 29.95, 29.95, 29.95, 29.95, 29.5, 29.06, 29.06, 29.06, 29.06, 29.06, 29.5, 29.5, 29.5, 29.5, 29.5, 29.06, 29.06, 29.06, 28.61, 28.61, 28.61, 28.61, 28.61, 28.16, 28.16, 28.16, 28.16, 28.61, 28.61, 28.61, 27.27, 25.48, 24.59, 25.48, 26.37, 27.27, 27.27, 26.82, 26.37, 26.37, 25.93, 25.93, 25.93, 25.93, 25.48, 25.03, 25.03, 25.03, 25.03, 25.03, 24.59, 24.14, 24.59, 24.59, 24.14, 24.14, 23.69, 23.69, 30.4, 30.4, 30.4, 30.4, 30.4, 30.4, 30.4, 30.4, 30.4, 30.4, 30.4, 30.4, 30.4, 30.4, 30.4, 30.4, 30.4, 30.4, 29.95, 29.95, 29.5, 29.95, 29.95, 29.95, 29.5, 29.5, 29.5, 29.5, 29.5, 29.5, 29.5, 29.5, 29.5, 29.5, 29.5, 29.5, 29.5, 29.5, 29.5, 29.5, 29.95, 29.95, 29.95, 29.5, 29.5, 29.06, 29.06, 29.06, 29.06, 29.06, 29.06, 29.5, 29.5, 29.5, 29.5, 29.06, 28.61, 28.61, 28.61, 28.61, 28.61, 28.61, 28.16, 28.16, 28.16, 28.16, 28.16, 28.61, 28.61, 28.61, 27.72, 25.48, 24.59, 25.48, 26.82, 26.82, 26.82, 26.82, 26.82, 26.82, 26.37, 26.37, 26.37, 25.93, 25.48, 25.48, 25.03, 25.03, 24.59, 24.59, 24.59, 24.14, 24.59, 24.59, 24.59, 24.14, 23.69, 23.69, 30.4, 30.4, 30.4, 30.4, 30.4, 30.4, 30.4, 30.4, 30.4, 30.4, 30.4, 30.4, 30.4, 30.4, 30.4, 30.4, 30.4, 29.95, 29.95, 29.95, 29.5, 29.5, 29.5, 29.5, 29.5, 29.5, 29.5, 29.5, 29.5, 29.5, 29.5, 29.5, 29.5, 29.06, 29.06, 29.06, 29.06, 29.5, 29.5, 29.5, 29.5, 29.5, 29.5, 29.5, 29.06, 29.06, 28.61, 28.61, 28.61, 28.61, 29.06, 29.06, 29.5, 29.5, 29.5, 29.06, 28.61, 28.16, 28.16, 28.61, 28.61, 28.16, 28.16, 28.16, 28.16, 28.16, 28.16, 28.61, 29.06, 29.06, 28.16, 25.93, 23.69, 24.59, 25.93, 25.93, 26.37, 26.82, 27.27, 27.27, 27.27, 26.82, 26.37, 25.93, 25.93, 25.48, 25.48, 25.03, 24.59, 24.59, 24.59, 24.59, 24.14, 24.59, 24.59, 24.14, 23.69, 23.69, 30.4, 30.4, 30.4, 30.4, 30.4, 30.4, 30.4, 30.4, 30.4, 30.4, 30.4, 30.4, 30.4, 30.4, 30.4, 29.95, 29.95, 29.95, 29.95, 29.95, 29.5, 29.5, 29.5, 29.5, 29.5, 29.5, 29.5, 29.5, 29.5, 29.06, 29.06, 29.06, 29.06, 29.06, 29.06, 29.06, 29.06, 29.06, 29.5, 29.5, 29.5, 29.5, 29.5, 29.5, 29.06, 28.61, 28.61, 28.61, 28.61, 28.61, 29.06, 29.06, 29.5, 29.5, 29.5, 29.5, 29.06, 28.16, 27.72, 28.16, 28.61, 28.16, 28.16, 28.16, 28.16, 28.16, 28.16, 28.61, 29.06, 29.06, 28.61, 27.27, 22.8, 25.03, 25.48, 25.48, 25.93, 26.82, 27.27, 27.72, 27.72, 27.27, 26.82, 26.37, 26.37, 25.93, 25.48, 25.48, 24.59, 24.59, 24.59, 24.59, 24.14, 24.14, 24.59, 24.14, 23.69, 23.69, 30.4, 30.4, 29.95, 29.95, 29.95, 29.95, 30.4, 30.4, 30.4, 30.4, 30.4, 30.4, 30.4, 29.95, 29.95, 29.95, 29.95, 29.95, 29.5, 29.5, 29.5, 29.5, 29.5, 29.5, 29.5, 29.5, 29.5, 29.06, 29.06, 29.06, 29.06, 29.06, 29.06, 29.06, 29.06, 29.06, 29.06, 29.06, 29.06, 29.5, 29.5, 29.5, 29.5, 29.06, 29.06, 28.61, 28.61, 28.61, 28.61, 28.61, 29.06, 29.06, 29.06, 29.5, 29.5, 29.06, 29.06, 28.61, 27.72, 27.72, 27.72, 28.16, 28.16, 28.16, 28.16, 28.16, 28.16, 28.61, 28.61, 28.61, 28.61, 25.93, 22.8, 23.69, 25.03, 25.48, 25.48, 26.37, 27.27, 28.16, 28.16, 27.72, 27.27, 26.82, 26.82, 26.37, 25.93, 25.93, 25.48, 24.59, 24.59, 24.14, 24.14, 24.14, 24.14, 24.14, 24.14, 24.14, 29.95, 29.95, 29.95, 29.95, 29.95, 29.95, 29.95, 29.95, 30.4, 30.4, 30.4, 29.95, 29.95, 29.95, 29.95, 29.95, 29.5, 29.5, 29.5, 29.5, 29.5, 29.06, 29.06, 29.06, 29.06, 29.06, 29.06, 29.06, 29.06, 29.06, 29.06, 29.06, 29.06, 29.06, 29.06, 29.06, 29.06, 29.06, 29.06, 29.06, 29.06, 29.06, 29.06, 29.06, 28.61, 28.61, 28.61, 28.61, 28.61, 28.61, 29.06, 29.06, 29.06, 29.06, 29.06, 29.06, 29.06, 28.61, 28.16, 27.27, 27.27, 27.72, 28.16, 28.16, 28.16, 28.16, 28.16, 28.16, 28.61, 28.61, 28.16, 26.82, 24.59, 23.25, 24.14, 25.03, 25.03, 25.93, 26.82, 27.72, 28.16, 27.72, 27.27, 27.27, 26.82, 26.37, 26.37, 25.93, 25.93, 25.48, 24.59, 24.14, 24.14, 24.14, 24.14, 23.69, 23.69, 23.69, 29.95, 29.95, 29.95, 29.95, 29.95, 29.95, 29.95, 29.95, 29.95, 29.95, 29.95, 29.95, 29.95, 29.5, 29.5, 29.5, 29.5, 29.5, 29.5, 29.06, 29.06, 29.06, 29.06, 29.06, 29.06, 29.06, 29.06, 29.06, 29.06, 29.06, 29.06, 28.61, 28.61, 28.61, 28.61, 28.61, 28.61, 29.06, 29.06, 29.06, 29.06, 29.06, 29.06, 29.06, 28.61, 28.61, 28.61, 28.61, 28.61, 28.61, 29.06, 29.06, 29.06, 29.06, 29.06, 29.06, 28.61, 28.61, 28.16, 27.72, 27.27, 27.27, 27.72, 28.16, 28.16, 28.16, 28.16, 28.16, 28.61, 28.61, 28.16, 27.72, 26.37, 24.14, 23.69, 23.69, 24.59, 25.48, 26.37, 27.27, 27.72, 27.72, 27.72, 27.27, 26.82, 26.37, 26.37, 26.37, 26.37, 25.93, 25.48, 24.14, 24.14, 24.14, 23.69, 23.69, 23.69, 23.69, 29.5, 29.5, 29.5, 29.5, 29.5, 29.5, 29.95, 29.95, 29.95, 29.95, 29.5, 29.5, 29.5, 29.5, 29.5, 29.5, 29.5, 29.5, 29.06, 29.06, 29.06, 29.06, 29.06, 29.06, 29.06, 29.06, 29.06, 29.06, 28.61, 28.61, 28.61, 28.61, 28.61, 28.61, 28.61, 28.61, 28.61, 28.61, 28.61, 29.06, 29.06, 29.06, 29.06, 29.06, 28.61, 28.61, 28.61, 28.61, 28.61, 28.61, 28.61, 29.06, 29.06, 29.06, 28.61, 28.61, 28.61, 28.61, 28.61, 28.16, 27.72, 27.27, 27.72, 28.16, 28.16, 28.16, 28.16, 28.61, 28.61, 28.16, 28.16, 27.72, 26.82, 25.93, 24.59, 23.69, 23.25, 25.03, 26.37, 26.82, 27.27, 27.72, 27.72, 27.72, 27.27, 26.82, 26.37, 26.37, 26.37, 26.37, 25.93, 25.03, 24.14, 24.14, 23.69, 23.25, 23.25, 23.25, 29.5, 29.5, 29.5, 29.5, 29.5, 29.5, 29.5, 29.5, 29.5, 29.5, 29.5, 29.5, 29.06, 29.06, 29.06, 29.06, 29.06, 29.06, 29.06, 29.06, 29.06, 28.61, 28.61, 28.61, 28.61, 28.61, 28.61, 28.61, 28.61, 28.61, 28.61, 28.61, 28.61, 28.61, 28.61, 28.61, 28.61, 28.61, 28.61, 28.61, 28.61, 28.61, 28.61, 28.61, 28.61, 28.61, 28.61, 28.61, 28.61, 28.61, 28.61, 28.61, 28.61, 28.61, 28.61, 28.61, 28.61, 28.61, 28.61, 28.16, 28.16, 27.72, 27.72, 28.16, 28.16, 28.16, 28.16, 28.61, 28.61, 28.61, 28.16, 27.27, 26.82, 26.37, 25.48, 24.59, 23.69, 24.59, 25.93, 26.37, 26.82, 27.27, 27.27, 27.72, 27.27, 27.27, 26.82, 26.37, 26.37, 26.37, 26.37, 25.48, 24.14, 23.69, 23.69, 23.25, 23.25, 23.25, 29.06, 29.06, 29.06, 29.06, 29.5, 29.5, 29.5, 29.5, 29.5, 29.5, 29.06, 29.06, 29.06, 29.06, 29.06, 29.06, 29.06, 29.06, 29.06, 28.61, 28.61, 28.61, 28.61, 28.61, 28.61, 28.61, 28.61, 28.16, 28.16, 28.16, 28.16, 28.16, 28.16, 28.16, 28.16, 28.16, 28.61, 28.61, 28.61, 28.61, 28.61, 28.61, 28.61, 28.61, 28.61, 28.16, 28.16, 28.61, 28.61, 28.61, 28.61, 28.61, 28.16, 28.16, 28.16, 28.16, 28.16, 28.16, 28.61, 28.61, 28.16, 28.16, 28.16, 28.16, 28.16, 28.61, 28.16, 28.61, 28.61, 28.61, 28.16, 27.27, 26.37, 25.93, 25.93, 25.48, 25.03, 25.03, 25.48, 26.37, 26.82, 26.82, 27.27, 27.27, 27.72, 27.72, 27.27, 26.82, 26.37, 26.37, 26.37, 25.48, 24.59, 23.69, 23.69, 23.25, 23.25, 23.25, 29.06, 29.06, 29.06, 29.06, 29.06, 29.06, 29.06, 29.06, 29.5, 29.06, 29.06, 29.06, 28.61, 28.61, 28.61, 28.61, 28.61, 28.61, 28.61, 28.61, 28.61, 28.61, 28.16, 28.16, 28.16, 28.16, 28.16, 28.16, 28.16, 28.16, 28.16, 28.16, 28.16, 28.16, 28.16, 28.16, 28.16, 28.16, 28.61, 28.61, 28.61, 28.61, 28.61, 28.61, 28.16, 28.16, 28.16, 28.16, 28.16, 28.16, 28.16, 28.16, 28.16, 28.16, 28.16, 28.16, 28.16, 28.16, 28.61, 28.61, 28.61, 28.16, 28.16, 28.16, 28.61, 28.61, 28.61, 28.16, 28.61, 28.61, 28.61, 28.16, 26.37, 25.03, 25.03, 25.48, 25.48, 25.48, 25.48, 25.93, 26.37, 26.82, 27.27, 27.27, 27.72, 27.72, 27.72, 27.27, 26.82, 26.82, 26.37, 25.93, 25.03, 24.14, 23.69, 23.69, 23.69, 23.69, 29.06, 29.06, 29.06, 29.06, 29.06, 29.06, 29.06, 29.06, 29.06, 29.06, 29.06, 28.61, 28.61, 28.61, 28.61, 28.61, 28.61, 28.61, 28.61, 28.61, 28.61, 28.16, 28.16, 28.16, 28.16, 28.16, 28.16, 28.16, 28.16, 28.16, 28.16, 28.16, 28.16, 28.16, 28.16, 28.16, 28.16, 28.16, 28.16, 28.16, 28.16, 28.16, 28.16, 28.16, 28.16, 28.16, 28.16, 28.16, 28.16, 28.16, 27.72, 27.72, 27.72, 27.72, 27.72, 28.16, 28.16, 28.61, 28.61, 28.61, 28.61, 28.61, 28.61, 28.61, 28.61, 29.06, 29.06, 28.61, 28.16, 28.16, 29.06, 28.61, 27.27, 25.03, 24.14, 25.03, 25.93, 26.37, 25.93, 25.93, 26.37, 27.27, 27.27, 27.27, 27.27, 27.27, 27.27, 27.27, 27.27, 26.82, 26.37, 25.93, 25.03, 24.59, 24.14, 23.69, 23.69, 23.69, 28.61, 28.61, 28.61, 28.61, 28.61, 28.61, 28.61, 29.06, 28.61, 28.61, 28.61, 28.61, 28.61, 28.61, 28.61, 28.61, 28.61, 28.16, 28.16, 28.16, 28.16, 28.16, 28.16, 27.72, 27.72, 27.72, 27.72, 27.72, 27.72, 27.72, 27.72, 27.72, 27.72, 27.72, 27.72, 27.72, 27.72, 28.16, 28.16, 28.16, 28.16, 28.16, 28.16, 28.16, 28.16, 28.16, 28.16, 28.16, 28.16, 27.72, 27.72, 27.72, 27.72, 27.72, 28.16, 28.16, 28.16, 28.61, 28.61, 28.61, 28.61, 28.61, 28.61, 28.61, 29.06, 29.06, 29.5, 29.5, 28.61, 28.61, 28.61, 29.06, 28.16, 25.48, 23.25, 24.14, 25.93, 26.37, 25.93, 25.93, 26.82, 27.27, 27.72, 27.27, 27.27, 27.27, 27.27, 27.27, 27.27, 26.82, 26.82, 25.93, 25.48, 25.03, 24.14, 24.14, 23.69, 23.69, 28.61, 28.61, 28.61, 28.61, 28.61, 28.61, 28.61, 28.61, 28.61, 28.61, 28.61, 28.16, 28.16, 28.16, 28.16, 28.16, 28.16, 27.72, 27.72, 27.72, 27.72, 27.72, 27.72, 27.72, 27.72, 27.72, 27.72, 27.72, 27.72, 27.72, 27.72, 27.72, 27.72, 27.72, 27.72, 27.72, 27.72, 27.72, 27.72, 27.72, 27.72, 28.16, 28.16, 28.16, 28.16, 28.16, 28.16, 28.16, 27.72, 27.72, 27.72, 27.72, 27.72, 28.16, 28.16, 28.16, 28.61, 28.61, 28.61, 28.61, 28.61, 29.06, 29.06, 29.06, 29.06, 29.5, 29.5, 29.95, 29.5, 29.06, 29.06, 29.06, 28.61, 26.37, 24.14, 24.14, 25.93, 26.37, 25.93, 25.93, 26.82, 27.27, 27.27, 27.27, 27.27, 27.27, 27.27, 27.27, 27.27, 26.82, 26.37, 25.93, 25.48, 25.03, 24.59, 24.14, 24.14, 24.14, 28.61, 28.61, 28.16, 28.16, 28.16, 28.16, 28.16, 28.16, 28.16, 28.16, 28.16, 28.16, 28.16, 28.16, 28.16, 28.16, 27.72, 27.72, 27.72, 27.72, 27.72, 27.72, 27.72, 27.72, 27.72, 27.72, 27.27, 27.27, 27.27, 27.27, 27.27, 27.27, 27.27, 27.72, 27.72, 27.72, 27.72, 27.72, 27.72, 27.72, 27.72, 27.72, 27.72, 28.16, 28.16, 28.16, 28.16, 28.16, 27.72, 27.72, 27.72, 27.72, 27.72, 28.16, 28.16, 28.16, 28.61, 28.61, 28.61, 29.06, 29.06, 29.06, 29.06, 29.06, 29.5, 29.5, 29.95, 29.95, 29.95, 29.5, 29.5, 29.06, 28.61, 27.27, 25.03, 24.59, 25.48, 25.93, 25.93, 25.93, 26.82, 27.27, 27.27, 27.27, 27.27, 27.27, 27.27, 27.27, 26.82, 26.82, 26.37, 25.93, 25.93, 25.48, 25.03, 24.14, 24.14, 24.14, 28.16, 28.16, 28.16, 28.16, 28.16, 28.16, 28.16, 28.16, 28.16, 28.16, 28.16, 28.16, 27.72, 27.72, 27.72, 27.72, 27.27, 27.27, 27.27, 27.27, 27.27, 27.27, 27.27, 27.27, 27.27, 27.27, 27.27, 27.27, 27.27, 27.27, 27.27, 27.27, 27.27, 27.27, 27.27, 27.27, 27.72, 27.72, 27.72, 27.72, 27.72, 27.72, 27.72, 27.72, 28.16, 28.16, 28.16, 28.16, 28.16, 28.16, 28.16, 28.16, 28.16, 28.16, 28.16, 28.61, 28.61, 28.61, 29.06, 29.06, 29.06, 29.5, 29.5, 29.5, 29.5, 29.5, 29.95, 29.95, 29.95, 29.95, 29.95, 29.5, 28.61, 27.27, 25.93, 25.48, 25.48, 25.48, 25.93, 26.37, 26.82, 26.82, 26.82, 27.27, 27.27, 27.27, 27.27, 27.27, 26.82, 26.82, 26.37, 25.93, 25.93, 25.48, 25.03, 24.59, 24.14, 24.14, 28.16, 28.16, 28.16, 28.16, 28.16, 28.16, 27.72, 27.72, 27.72, 27.72, 27.72, 27.72, 27.72, 27.72, 27.27, 27.27, 27.27, 27.27, 27.27, 27.27, 27.27, 27.27, 27.27, 27.27, 27.27, 27.27, 27.27, 27.27, 27.27, 27.27, 27.27, 27.27, 27.27, 27.27, 27.27, 27.27, 27.72, 27.72, 27.72, 27.72, 27.72, 27.72, 27.72, 28.16, 28.16, 28.16, 28.16, 28.16, 28.16, 28.16, 28.16, 28.16, 28.16, 28.61, 28.61, 28.61, 28.61, 29.06, 29.06, 29.5, 29.5, 29.5, 29.5, 29.5, 29.5, 29.95, 29.95, 29.95, 29.95, 29.95, 29.95, 29.95, 28.61, 27.27, 26.37, 25.93, 25.93, 25.48, 25.48, 26.37, 26.82, 26.82, 26.82, 26.82, 27.27, 27.27, 27.27, 27.27, 26.82, 26.37, 26.37, 25.93, 25.93, 25.48, 25.48, 25.03, 24.59, 24.59, 28.16, 28.16, 28.16, 27.72, 27.72, 27.72, 27.72, 27.72, 27.72, 27.72, 27.72, 27.72, 27.27, 27.27, 27.27, 27.27, 27.27, 27.27, 27.27, 27.27, 27.27, 27.27, 27.27, 27.27, 27.27, 27.27, 27.27, 27.27, 27.27, 27.27, 27.27, 27.27, 27.27, 27.27, 27.27, 27.72, 27.72, 27.72, 27.72, 27.72, 27.72, 28.16, 28.16, 28.16, 28.16, 28.16, 28.61, 28.61, 28.61, 28.61, 28.61, 28.61, 28.61, 28.61, 28.61, 28.61, 29.06, 29.06, 29.5, 29.5, 29.5, 29.5, 29.5, 29.5, 29.5, 29.95, 29.95, 29.95, 29.95, 30.4, 30.4, 30.4, 29.5, 27.72, 26.37, 25.93, 25.93, 25.48, 25.48, 26.37, 26.82, 26.82, 26.37, 26.82, 27.27, 27.27, 27.27, 27.27, 26.82, 26.82, 26.37, 25.93, 25.93, 25.48, 25.48, 25.03, 25.03, 24.59, 27.72, 27.72, 27.72, 27.72, 27.72, 27.72, 27.72, 27.72, 27.72, 27.72, 27.72, 27.27, 27.27, 27.27, 27.27, 27.27, 27.27, 26.82, 26.82, 27.27, 27.27, 27.27, 27.27, 27.27, 27.27, 27.27, 27.27, 27.27, 27.27, 27.27, 27.27, 27.27, 27.27, 27.72, 27.72, 27.72, 27.72, 27.72, 28.16, 28.16, 28.16, 28.16, 28.16, 28.16, 28.61, 28.61, 28.61, 28.61, 28.61, 29.06, 29.06, 29.06, 29.06, 29.06, 29.06, 29.06, 29.06, 29.06, 29.5, 29.5, 29.5, 29.5, 29.95, 29.95, 29.95, 29.95, 29.95, 29.95, 29.95, 30.4, 30.4, 30.4, 29.95, 28.16, 26.37, 25.93, 25.93, 25.48, 25.48, 26.37, 26.82, 26.37, 26.37, 26.82, 27.27, 27.27, 27.27, 27.27, 26.82, 26.82, 26.37, 25.93, 25.93, 25.48, 25.48, 25.03, 25.03, 25.03, 27.72, 27.72, 27.72, 27.72, 27.72, 27.72, 27.72, 27.72, 27.72, 27.27, 27.27, 27.27, 27.27, 27.27, 27.27, 27.27, 27.27, 26.82, 26.82, 27.27, 27.27, 27.27, 27.27, 27.27, 27.27, 27.72, 27.72, 27.72, 27.72, 27.27, 27.27, 27.72, 27.72, 27.72, 27.72, 28.16, 28.16, 28.16, 28.16, 28.16, 28.61, 28.61, 28.61, 28.61, 28.61, 29.06, 29.06, 29.06, 29.06, 29.06, 29.5, 29.5, 29.5, 29.5, 29.5, 29.5, 29.5, 29.5, 29.5, 29.5, 29.5, 29.5, 29.95, 29.95, 29.95, 29.95, 30.4, 30.4, 30.4, 29.95, 30.4, 30.4, 29.95, 29.5, 27.72, 25.93, 25.48, 25.48, 25.48, 25.93, 25.93, 26.37, 26.37, 26.82, 27.27, 27.27, 26.82, 26.82, 26.82, 26.82, 26.37, 25.93, 25.93, 25.48, 25.03, 25.03, 25.03, 25.03, 27.72, 27.72, 27.72, 27.72, 27.72, 27.72, 27.72, 27.27, 27.27, 27.27, 27.27, 27.27, 27.27, 27.27, 27.27, 27.27, 27.27, 27.27, 27.27, 27.27, 27.27, 27.27, 27.27, 27.72, 27.72, 27.72, 27.72, 27.72, 27.72, 27.72, 27.72, 27.72, 27.72, 28.16, 28.16, 28.16, 28.61, 28.61, 28.61, 28.61, 28.61, 28.61, 29.06, 29.06, 29.06, 29.06, 29.5, 29.5, 29.5, 29.5, 29.5, 29.5, 29.5, 29.5, 29.5, 29.5, 29.5, 29.5, 29.5, 29.5, 29.5, 29.95, 29.95, 29.95, 29.95, 29.95, 30.4, 30.4, 30.4, 30.4, 30.4, 30.4, 29.95, 29.95, 29.06, 27.27, 25.48, 25.03, 25.48, 25.48, 25.03, 25.93, 26.37, 27.27, 27.27, 27.27, 26.82, 26.82, 26.37, 26.37, 26.37, 25.93, 25.48, 25.48, 25.03, 25.03, 25.03, 25.03, 27.72, 27.72, 27.72, 27.72, 27.72, 27.72, 27.72, 27.72, 27.72, 27.72, 27.72, 27.27, 27.27, 27.27, 27.27, 27.27, 27.27, 27.27, 27.27, 27.27, 27.27, 27.72, 27.72, 27.72, 27.72, 28.16, 28.16, 28.16, 28.16, 28.16, 28.16, 28.16, 28.16, 28.61, 28.61, 28.61, 28.61, 29.06, 29.06, 29.06, 29.06, 29.06, 29.06, 29.5, 29.5, 29.5, 29.5, 29.5, 29.95, 29.95, 29.95, 29.95, 29.95, 29.95, 29.95, 29.95, 29.95, 29.95, 29.95, 29.95, 29.95, 29.95, 29.95, 29.95, 29.95, 29.95, 29.95, 30.4, 30.4, 30.4, 29.95, 29.95, 29.95, 29.95, 29.5, 28.61, 26.82, 25.03, 25.03, 25.03, 24.59, 25.03, 25.93, 26.82, 27.27, 27.27, 26.82, 26.37, 26.37, 26.37, 25.93, 25.93, 25.48, 25.48, 25.03, 25.03, 25.03, 25.03, 28.16, 28.16, 27.72, 27.72, 27.72, 27.72, 27.72, 27.72, 27.72, 27.72, 27.72, 27.72, 27.72, 27.72, 27.72, 27.72, 27.72, 27.72, 27.72, 27.72, 27.72, 28.16, 28.16, 28.16, 28.16, 28.16, 28.16, 28.16, 28.16, 28.16, 28.61, 28.61, 28.61, 29.06, 29.06, 29.06, 29.06, 29.5, 29.5, 29.5, 29.5, 29.5, 29.5, 29.5, 29.95, 29.95, 29.95, 29.95, 29.95, 29.95, 29.95, 30.4, 30.4, 30.4, 29.95, 29.95, 29.95, 29.95, 29.95, 29.95, 29.95, 29.95, 29.95, 29.95, 29.95, 29.95, 29.95, 30.4, 30.4, 29.95, 29.95, 29.95, 29.95, 29.5, 29.5, 29.06, 27.72, 26.37, 25.48, 25.03, 24.59, 24.59, 25.03, 26.37, 26.82, 26.82, 26.82, 26.37, 26.37, 25.93, 25.93, 25.93, 25.48, 25.03, 25.03, 25.03, 25.03, 25.03, 28.16, 28.16, 28.16, 28.16, 28.16, 27.72, 28.16, 28.16, 28.16, 28.16, 28.16, 28.16, 28.16, 28.16, 28.16, 27.72, 27.72, 28.16, 28.16, 28.16, 28.16, 28.16, 28.61, 28.61, 28.61, 28.61, 28.61, 28.61, 28.61, 28.61, 29.06, 29.06, 29.06, 29.5, 29.5, 29.5, 29.5, 29.5, 29.5, 29.95, 29.95, 29.95, 29.95, 29.95, 29.95, 30.4, 30.4, 30.4, 30.4, 30.4, 30.4, 30.4, 30.4, 30.4, 30.4, 29.95, 29.95, 29.95, 29.95, 29.95, 29.95, 29.95, 29.95, 29.95, 29.95, 29.95, 29.95, 29.95, 29.95, 29.95, 29.95, 29.95, 29.95, 29.5, 29.5, 29.06, 28.61, 27.27, 26.37, 25.93, 25.03, 24.59, 25.03, 25.48, 26.37, 26.37, 26.37, 26.37, 25.93, 25.93, 25.93, 25.48, 25.48, 25.03, 25.03, 25.03, 25.03, 25.03, 28.61, 28.61, 28.61, 28.16, 28.16, 28.61, 28.61, 28.61, 28.61, 28.61, 28.61, 28.61, 28.61, 28.16, 28.16, 28.16, 28.16, 28.16, 28.61, 28.61, 28.61, 28.61, 29.06, 29.06, 29.06, 29.06, 29.06, 29.06, 29.06, 29.06, 29.5, 29.5, 29.5, 29.95, 29.95, 29.95, 29.95, 29.95, 29.95, 29.95, 29.95, 30.4, 30.4, 30.4, 30.4, 30.4, 30.4, 30.4, 30.4, 30.4, 30.4, 30.4, 30.4, 30.4, 30.4, 29.95, 29.95, 29.95, 29.95, 29.95, 29.95, 29.95, 29.95, 29.95, 29.95, 29.95, 29.95, 29.95, 29.95, 29.95, 29.95, 29.95, 29.5, 29.5, 29.06, 29.06, 28.61, 27.72, 27.27, 26.82, 25.48, 24.59, 25.03, 25.48, 25.93, 25.93, 25.93, 25.93, 25.93, 25.93, 25.48, 25.48, 25.48, 25.03, 25.03, 25.03, 25.03, 25.03, 29.06, 29.06, 28.61, 28.61, 29.06, 29.06, 29.06, 29.06, 29.06, 29.06, 28.61, 28.61, 28.61, 28.61, 28.61, 28.61, 28.61, 28.61, 29.06, 29.06, 29.06, 29.06, 29.5, 29.5, 29.5, 29.5, 29.5, 29.5, 29.5, 29.5, 29.95, 29.95, 29.95, 29.95, 30.4, 30.4, 30.4, 30.4, 30.4, 30.4, 30.4, 30.4, 30.4, 30.84, 30.84, 30.84, 30.84, 30.84, 30.84, 30.84, 30.84, 30.84, 30.4, 30.4, 30.4, 30.4, 29.95, 29.95, 29.95, 29.95, 29.95, 29.95, 29.95, 29.95, 29.95, 29.95, 29.95, 29.95, 29.95, 29.5, 29.95, 29.95, 29.5, 29.06, 29.06, 28.61, 28.61, 27.72, 27.27, 27.27, 25.93, 25.03, 25.03, 25.48, 25.48, 25.93, 25.93, 25.93, 25.93, 25.48, 25.48, 25.48, 25.48, 25.03, 25.03, 25.03, 25.03, 25.03, 29.06, 29.06, 29.06, 29.5, 29.5, 29.5, 29.5, 29.06, 29.06, 29.06, 29.06, 29.06, 29.06, 29.06, 29.06, 29.06, 29.06, 29.06, 29.5, 29.5, 29.5, 29.5, 29.95, 29.95, 29.95, 29.95, 29.95, 29.95, 29.95, 29.95, 30.4, 30.4, 30.4, 30.4, 30.4, 30.4, 30.84, 30.84, 30.84, 30.84, 30.84, 30.84, 30.84, 30.84, 30.84, 30.84, 30.84, 30.84, 30.84, 30.84, 30.84, 30.84, 30.84, 30.4, 30.4, 30.4, 30.4, 29.95, 29.95, 29.95, 29.95, 30.4, 29.95, 29.95, 29.95, 29.95, 29.95, 29.95, 29.95, 29.95, 29.5, 29.5, 29.5, 29.06, 29.06, 28.61, 28.61, 28.16, 27.72, 27.27, 26.37, 25.48, 25.03, 25.03, 25.48, 25.93, 25.93, 25.48, 25.48, 25.03, 25.03, 25.03, 25.03, 25.48, 25.48, 25.48, 25.48, 25.48, 29.5, 29.5, 29.95, 29.95, 29.95, 29.95, 29.5, 29.5, 29.5, 29.5, 29.5, 29.5, 29.5, 29.5, 29.5, 29.5, 29.5, 29.95, 29.95, 29.95, 29.95, 29.95, 30.4, 30.4, 30.4, 30.4, 30.4, 30.4, 30.4, 30.4, 30.84, 30.84, 30.84, 30.84, 30.84, 30.84, 30.84, 30.84, 30.84, 30.84, 30.84, 31.29, 31.29, 31.29, 30.84, 30.84, 30.84, 30.84, 30.84, 30.84, 30.84, 30.84, 30.84, 30.84, 30.4, 30.4, 30.4, 29.95, 29.95, 29.95, 30.4, 30.4, 29.95, 29.95, 29.95, 29.95, 29.95, 29.95, 29.95, 29.95, 29.5, 29.5, 29.5, 29.06, 29.06, 28.61, 28.61, 28.16, 27.72, 27.27, 26.82, 25.93, 25.03, 24.59, 25.03, 25.93, 25.48, 25.48, 25.03, 25.03, 25.03, 25.03, 25.48, 25.48, 25.48, 25.48, 25.48, 25.48, 29.95, 30.4, 30.4, 30.4, 30.4, 29.95, 29.95, 29.95, 29.95, 29.95, 29.95, 29.95, 29.95, 29.95, 29.95, 29.95, 29.95, 30.4, 30.4, 30.4, 30.4, 30.4, 30.4, 30.84, 30.84, 30.84, 30.84, 30.84, 30.84, 30.84, 30.84, 30.84, 31.29, 31.29, 31.29, 31.29, 31.29, 31.29, 31.29, 31.29, 31.29, 31.29, 31.29, 31.29, 31.29, 31.29, 31.29, 31.29, 31.29, 30.84, 30.84, 30.84, 30.84, 30.84, 30.4, 30.4, 30.4, 30.4, 29.95, 30.4, 30.4, 29.95, 29.95, 29.95, 29.95, 29.95, 29.95, 29.95, 29.5, 29.5, 29.5, 29.5, 29.5, 29.06, 29.06, 28.61, 28.61, 28.16, 28.16, 27.72, 27.27, 26.82, 25.93, 24.59, 25.03, 25.93, 25.48, 25.48, 25.03, 24.59, 25.03, 25.48, 25.48, 25.48, 25.48, 25.93, 25.93, 25.93, 30.4, 30.84, 30.84, 30.84, 30.4, 30.4, 30.4, 30.4, 30.4, 30.4, 30.4, 30.4, 30.4, 30.4, 30.4, 30.4, 30.4, 30.4, 30.84, 30.84, 30.84, 30.84, 30.84, 30.84, 30.84, 30.84, 31.29, 31.29, 31.29, 31.29, 31.29, 31.29, 31.29, 31.29, 31.29, 31.29, 31.29, 31.29, 31.29, 31.29, 31.29, 31.29, 31.29, 31.29, 31.29, 31.29, 31.29, 31.29, 31.29, 31.29, 30.84, 30.84, 30.84, 30.84, 30.4, 30.4, 30.4, 30.4, 30.4, 30.4, 30.4, 30.4, 29.95, 29.95, 29.95, 29.95, 29.95, 29.95, 29.5, 29.5, 29.5, 29.06, 29.06, 29.06, 29.06, 28.61, 28.61, 28.61, 28.16, 27.72, 27.27, 26.82, 26.37, 25.03, 26.37, 25.93, 25.48, 25.48, 25.48, 25.03, 24.59, 25.48, 25.48, 25.48, 25.48, 25.93, 25.93, 25.93, 31.29, 31.29, 31.29, 30.84, 30.84, 30.84, 30.84, 30.84, 30.84, 30.84, 30.84, 30.84, 30.84, 30.84, 30.84, 30.84, 30.84, 30.84, 30.84, 30.84, 31.29, 31.29, 31.29, 31.29, 31.29, 31.29, 31.29, 31.29, 31.29, 31.29, 31.29, 31.74, 31.74, 31.74, 31.74, 31.74, 31.74, 31.74, 31.74, 31.74, 31.74, 31.74, 31.29, 31.29, 31.29, 31.29, 31.29, 31.29, 31.29, 31.29, 31.29, 30.84, 30.84, 30.84, 30.84, 30.4, 30.4, 30.4, 30.4, 30.4, 30.4, 30.4, 30.4, 29.95, 29.95, 29.95, 29.95, 29.95, 29.95, 29.5, 29.5, 29.5, 29.06, 29.06, 29.06, 29.06, 28.61, 28.61, 28.16, 28.16, 27.72, 27.27, 26.37, 25.03, 26.37, 25.93, 25.48, 25.48, 25.48, 25.48, 25.03, 25.03, 25.48, 25.93, 25.93, 25.93, 25.93, 25.93, 31.74, 31.74, 31.29, 31.29, 31.29, 31.29, 31.29, 31.29, 31.29, 31.29, 31.29, 31.29, 31.29, 31.29, 31.29, 31.29, 31.29, 31.29, 31.29, 31.29, 31.29, 31.29, 31.74, 31.74, 31.74, 31.74, 31.74, 31.74, 31.74, 31.74, 31.74, 31.74, 31.74, 31.74, 31.74, 31.74, 31.74, 31.74, 31.74, 31.74, 31.74, 31.74, 31.74, 31.74, 31.74, 31.29, 31.29, 31.29, 31.29, 31.29, 31.29, 30.84, 30.84, 30.84, 30.84, 30.4, 30.4, 30.4, 30.4, 30.4, 30.4, 30.4, 30.4, 30.4, 30.4, 29.95, 29.95, 29.95, 29.95, 29.95, 29.5, 29.5, 29.06, 29.06, 29.06, 29.06, 29.06, 28.61, 28.16, 28.16, 28.16, 27.72, 25.48, 25.03, 25.93, 25.93, 25.48, 25.48, 25.48, 25.48, 25.03, 25.48, 25.93, 25.93, 25.93, 25.93, 25.93, 25.93, 31.74, 31.74, 31.74, 31.74, 31.74, 31.29, 31.29, 31.29, 31.29, 31.29, 31.74, 31.74, 31.74, 31.74, 31.74, 31.74, 31.74, 31.74, 31.74, 31.74, 31.74, 31.74, 31.74, 31.74, 31.74, 31.74, 31.74, 31.74, 31.74, 31.74, 31.74, 31.74, 31.74, 31.74, 31.74, 31.74, 31.74, 31.74, 31.74, 31.74, 31.74, 31.74, 31.74, 31.74, 31.74, 31.29, 31.29, 31.29, 31.29, 31.29, 31.29, 30.84, 30.84, 30.84, 30.84, 30.84, 30.4, 30.4, 30.4, 30.4, 30.4, 30.4, 30.4, 30.4, 30.4, 30.4, 29.95, 29.95, 29.95, 29.95, 29.5, 29.5, 29.5, 29.06, 29.06, 29.06, 28.61, 28.61, 28.16, 28.16, 28.16, 28.16, 25.93, 24.59, 25.48, 25.93, 25.48, 25.03, 25.03, 25.48, 25.03, 25.48, 25.93, 25.93, 25.93, 26.37, 26.37, 26.37, 32.19, 32.19, 32.19, 31.74, 31.74, 31.74, 31.74, 31.74, 31.74, 31.74, 31.74, 31.74, 31.74, 31.74, 31.74, 31.74, 31.74, 31.74, 31.74, 31.74, 31.74, 32.19, 32.19, 32.19, 32.19, 32.19, 32.19, 32.19, 32.19, 32.19, 32.19, 32.19, 32.19, 32.19, 32.19, 32.19, 32.19, 32.19, 32.19, 32.19, 31.74, 31.74, 31.74, 31.74, 31.74, 31.74, 31.29, 31.29, 31.29, 31.29, 31.29, 30.84, 30.84, 30.84, 30.84, 30.84, 30.4, 30.4, 30.4, 30.4, 30.4, 30.4, 30.4, 30.4, 30.4, 30.4, 29.95, 29.95, 29.95, 29.95, 29.5, 29.5, 29.06, 29.06, 29.06, 29.06, 29.06, 28.61, 28.61, 28.16, 28.16, 27.72, 26.82, 25.03, 24.59, 25.48, 25.03, 25.03, 25.03, 25.48, 25.48, 25.48, 25.93, 25.93, 26.37, 26.37, 26.37, 26.37, 32.19, 32.19, 32.19, 32.19, 32.19, 32.19, 32.19, 32.19, 32.19, 32.19, 32.19, 32.19, 32.19, 32.19, 32.19, 32.19, 32.19, 32.19, 32.19, 32.19, 32.19, 32.19, 32.19, 32.19, 32.19, 32.19, 32.19, 32.19, 32.19, 32.19, 32.19, 32.19, 32.19, 32.19, 32.19, 32.19, 32.19, 32.19, 32.19, 32.19, 32.19, 31.74, 31.74, 31.74, 31.74, 31.29, 31.29, 31.29, 31.29, 31.29, 30.84, 30.84, 30.84, 30.84, 30.84, 30.84, 30.4, 30.4, 30.4, 30.4, 30.4, 30.4, 30.4, 30.4, 30.4, 29.95, 29.95, 29.95, 29.95, 29.95, 29.5, 29.5, 29.06, 29.06, 29.06, 28.61, 29.06, 28.61, 28.61, 28.61, 28.61, 28.16, 27.27, 25.48, 24.14, 25.03, 25.48, 25.03, 25.03, 25.48, 25.48, 25.48, 25.48, 25.93, 26.37, 26.37, 26.37, 26.37, 32.63, 32.63, 32.63, 32.19, 32.19, 32.19, 32.19, 32.19, 32.19, 32.19, 32.19, 32.19, 32.19, 32.19, 32.19, 32.19, 32.19, 32.19, 32.19, 32.19, 32.19, 32.19, 32.19, 32.19, 32.19, 32.19, 32.19, 32.19, 32.19, 32.19, 32.19, 32.19, 32.19, 32.19, 32.19, 32.19, 32.19, 32.19, 32.19, 32.19, 32.19, 31.74, 31.74, 31.74, 31.74, 31.29, 31.29, 31.29, 31.29, 31.29, 30.84, 30.84, 30.84, 30.84, 30.84, 30.4, 30.4, 30.4, 30.4, 30.4, 30.4, 29.95, 29.95, 29.95, 29.95, 29.95, 29.95, 29.95, 29.95, 29.5, 29.5, 29.5, 29.06, 29.06, 29.06, 28.61, 28.61, 28.61, 28.61, 28.61, 28.61, 28.16, 27.72, 26.37, 24.59, 24.59, 25.03, 25.03, 25.03, 25.48, 25.93, 25.93, 25.48, 25.93, 25.93, 26.37, 26.37, 26.37, 32.63, 32.63, 32.63, 32.63, 32.63, 32.63, 32.63, 32.63, 32.63, 32.63, 32.63, 32.63, 32.63, 32.63, 32.63, 32.63, 32.19, 32.19, 32.19, 32.19, 32.63, 32.63, 32.63, 32.63, 32.63, 32.63, 32.63, 32.19, 32.19, 32.19, 32.19, 32.19, 32.19, 32.19, 32.19, 32.19, 32.19, 32.19, 32.19, 32.19, 32.19, 31.74, 31.74, 31.74, 31.74, 31.29, 31.29, 31.29, 31.29, 30.84, 30.84, 30.84, 30.84, 30.84, 30.84, 30.4, 30.4, 30.4, 30.4, 30.4, 29.95, 29.95, 29.95, 29.95, 29.95, 29.95, 29.95, 29.95, 29.5, 29.5, 29.5, 29.5, 29.06, 29.06, 29.06, 29.06, 28.61, 28.61, 28.61, 28.61, 28.61, 28.61, 28.16, 26.82, 25.48, 24.59, 25.03, 24.59, 25.03, 25.48, 25.93, 26.37, 25.93, 25.93, 25.93, 25.93, 25.93, 25.93, 33.08, 33.08, 32.63, 32.63, 32.63, 32.63, 32.63, 32.63, 32.63, 32.63, 32.63, 32.63, 32.63, 32.63, 32.63, 32.63, 32.63, 32.63, 32.63, 32.63, 32.63, 32.63, 32.63, 32.63, 32.63, 32.63, 32.63, 32.63, 32.63, 32.19, 32.19, 32.19, 32.19, 32.19, 32.63, 32.19, 32.19, 32.19, 32.19, 32.19, 32.19, 31.74, 31.74, 31.74, 31.29, 31.29, 31.29, 31.29, 31.29, 30.84, 30.84, 30.84, 30.84, 30.84, 30.84, 30.4, 30.4, 30.4, 30.4, 30.4, 29.95, 29.95, 29.95, 29.95, 29.95, 29.95, 29.5, 29.5, 29.5, 29.5, 29.5, 29.5, 29.06, 29.06, 29.06, 29.06, 28.61, 28.61, 28.61, 28.61, 28.61, 28.61, 28.16, 27.27, 25.93, 25.03, 25.03, 24.59, 24.59, 25.48, 25.93, 26.37, 26.37, 26.37, 25.93, 25.93, 25.93, 25.93, 33.08, 33.08, 33.08, 33.08, 33.08, 33.08, 33.08, 33.08, 33.08, 33.08, 33.08, 32.63, 32.63, 32.63, 32.63, 32.63, 32.63, 32.63, 32.63, 32.63, 32.63, 32.63, 32.63, 32.63, 32.63, 32.63, 32.63, 32.63, 32.63, 32.63, 32.63, 32.63, 32.63, 32.63, 32.63, 32.19, 32.19, 32.19, 32.19, 32.19, 31.74, 31.74, 31.74, 31.74, 31.29, 31.29, 31.29, 31.29, 31.29, 30.84, 30.84, 30.84, 30.84, 30.84, 30.4, 30.4, 30.4, 30.4, 30.4, 30.4, 29.95, 29.95, 29.95, 29.95, 29.95, 29.5, 29.5, 29.5, 29.5, 29.5, 29.5, 29.5, 29.06, 29.06, 29.06, 29.06, 29.06, 28.61, 28.61, 28.61, 28.61, 28.61, 28.16, 27.72, 26.37, 25.48, 25.03, 24.59, 24.14, 24.59, 25.48, 26.37, 26.82, 26.82, 26.37, 25.93, 25.93, 25.93, 33.08, 33.08, 33.08, 33.08, 33.08, 33.08, 33.08, 33.08, 33.08, 33.08, 33.08, 32.63, 32.63, 32.63, 32.63, 32.63, 32.63, 32.63, 32.63, 32.63, 32.63, 32.63, 32.63, 32.63, 32.63, 32.63, 32.63, 32.63, 32.63, 32.63, 32.63, 32.63, 32.63, 32.63, 32.63, 32.19, 32.19, 32.19, 32.19, 32.19, 31.74, 31.74, 31.74, 31.74, 31.29, 31.29, 31.29, 31.29, 31.29, 30.84, 30.84, 30.84, 30.84, 30.84, 30.4, 30.4, 30.4, 30.4, 30.4, 30.4, 29.95, 29.95, 29.95, 29.95, 29.95, 29.5, 29.5, 29.5, 29.5, 29.5, 29.5, 29.5, 29.06, 29.06, 29.06, 29.06, 28.61, 28.61, 28.61, 28.61, 28.61, 28.61, 28.16, 27.72, 27.27, 26.37, 25.48, 24.59, 24.14, 24.14, 25.03, 25.93, 26.37, 26.82, 26.82, 26.37, 26.37, 26.37]}, {"header": {"parameterCategory": 1, "parameterNumber": 3, "dx": 0.06612293990616946, "dy": 0.0552356325346848, "nx": 98, "ny": 59, "la1": 35.046912555036876, "la2": 31.78801023549047, "lo1": -121.43107172385933, "lo2": -114.95102361305473, "refTime": "2026041218"}, "data": [0.89, 0.89, 1.34, 1.34, 1.34, 1.34, 1.34, 1.34, 1.79, 1.79, 1.79, 1.79, 1.79, 1.79, 1.79, 1.79, 1.79, 1.79, 1.79, 1.34, 1.34, 0.89, 0.89, 0.45, 0.45, 0.45, 0.45, 0.45, 0.0, 0.0, 0.45, 0.89, 1.79, 2.68, 3.13, 2.68, 2.24, 1.79, 2.24, 2.24, 2.68, 2.68, 3.13, 3.13, 3.13, 3.13, 3.13, 3.13, 3.58, 3.58, 4.02, 4.47, 4.92, 5.36, 6.26, 6.71, 7.15, 7.6, 8.05, 8.49, 8.94, 9.39, 9.83, 10.28, 11.18, 11.62, 12.52, 12.52, 12.96, 12.96, 12.96, 13.41, 13.41, 13.41, 13.41, 13.86, 14.3, 14.75, 14.75, 14.3, 14.3, 14.3, 14.3, 14.3, 14.3, 14.3, 14.75, 15.2, 15.2, 15.2, 15.2, 15.2, 15.2, 15.2, 15.65, 15.65, 15.65, 15.65, 0.89, 0.89, 1.34, 1.34, 1.34, 1.34, 1.34, 1.34, 1.34, 1.79, 1.79, 1.79, 1.79, 1.79, 1.79, 1.79, 1.79, 1.79, 1.79, 1.79, 1.34, 1.34, 0.89, 0.45, 0.0, 0.0, 0.45, 0.45, 0.0, 0.0, 0.0, 0.45, 0.89, 2.24, 3.13, 3.58, 3.13, 2.68, 2.68, 2.68, 2.68, 2.68, 2.68, 3.13, 3.13, 3.13, 3.13, 3.13, 3.58, 4.02, 4.02, 4.47, 4.92, 5.81, 6.26, 6.71, 7.15, 7.6, 8.49, 8.94, 9.39, 9.83, 10.28, 10.73, 11.62, 12.07, 12.52, 12.52, 12.52, 12.96, 12.96, 12.96, 12.96, 13.41, 13.41, 13.86, 14.3, 14.75, 14.75, 14.3, 14.3, 14.3, 14.3, 14.3, 14.3, 14.3, 14.75, 15.2, 15.2, 15.2, 15.2, 15.2, 15.2, 15.2, 15.65, 15.65, 15.65, 15.65, 0.89, 0.89, 0.89, 1.34, 1.34, 1.34, 1.34, 1.34, 1.34, 1.34, 1.34, 1.79, 1.79, 1.79, 1.79, 1.79, 1.79, 1.79, 1.79, 1.79, 1.34, 1.34, 1.34, 0.89, 0.45, 0.0, 0.0, 0.0, 0.45, 0.45, 0.45, 0.0, 0.0, 0.89, 1.79, 3.13, 3.58, 3.58, 3.13, 3.13, 3.13, 2.68, 3.13, 3.13, 3.13, 3.13, 3.58, 3.58, 4.02, 4.02, 4.47, 4.92, 5.36, 5.81, 6.71, 7.15, 7.6, 8.05, 8.49, 8.94, 9.39, 9.83, 10.28, 11.18, 11.62, 12.07, 12.07, 12.07, 12.52, 12.52, 12.96, 12.96, 12.96, 13.41, 13.41, 13.86, 14.3, 14.75, 14.75, 14.3, 14.3, 14.3, 14.3, 14.3, 14.3, 14.75, 14.75, 14.75, 15.2, 15.2, 15.2, 15.2, 15.2, 15.2, 15.2, 15.2, 15.65, 15.65, 0.89, 0.89, 0.89, 1.34, 1.34, 1.34, 1.34, 1.34, 1.34, 1.34, 1.34, 1.34, 1.79, 1.79, 1.79, 1.79, 1.79, 1.79, 1.79, 1.79, 1.79, 1.34, 1.34, 1.34, 0.89, 0.0, 0.0, 0.0, 0.45, 0.45, 0.89, 0.45, 0.0, 0.0, 0.45, 1.34, 2.24, 3.13, 3.58, 3.58, 3.13, 2.68, 3.13, 3.13, 3.58, 3.58, 4.02, 4.47, 4.47, 4.92, 4.92, 5.36, 5.81, 6.26, 6.71, 7.6, 8.05, 8.49, 8.94, 9.39, 9.39, 9.83, 10.28, 11.18, 11.62, 11.62, 12.07, 12.07, 12.07, 12.52, 12.52, 12.52, 12.96, 13.41, 13.86, 14.3, 14.3, 14.3, 14.3, 14.3, 14.3, 14.3, 14.3, 14.3, 14.3, 14.3, 14.75, 14.75, 14.75, 14.75, 15.2, 15.2, 15.2, 15.2, 15.2, 15.2, 15.2, 15.2, 0.89, 0.89, 0.89, 0.89, 1.34, 1.34, 1.34, 1.34, 1.34, 1.34, 1.34, 1.34, 1.79, 1.79, 1.79, 1.79, 1.79, 1.79, 1.79, 1.79, 1.79, 1.34, 1.34, 0.89, 0.89, 0.89, 0.0, 0.0, 0.0, 0.45, 0.45, 0.89, 0.45, 0.0, 0.0, 0.0, 0.45, 1.79, 2.24, 3.13, 3.13, 2.68, 2.68, 3.13, 3.58, 4.02, 4.47, 4.92, 4.92, 5.36, 5.81, 6.26, 6.71, 6.71, 7.15, 7.6, 8.49, 8.94, 8.94, 9.39, 9.39, 10.28, 10.73, 11.18, 11.62, 11.62, 11.62, 12.07, 12.07, 12.07, 12.07, 12.07, 12.07, 12.96, 13.41, 14.3, 14.3, 14.3, 13.86, 14.3, 14.3, 14.3, 14.3, 14.3, 14.3, 14.3, 14.3, 14.3, 14.75, 14.75, 14.75, 14.75, 14.75, 14.75, 14.75, 14.75, 15.2, 15.2, 0.89, 0.89, 0.89, 0.89, 0.89, 1.34, 1.34, 1.34, 1.34, 1.34, 1.34, 1.34, 1.79, 1.79, 1.79, 1.79, 1.79, 1.79, 1.79, 1.79, 1.79, 1.79, 1.34, 1.34, 0.89, 0.89, 0.45, 0.0, 0.0, 0.0, 0.0, 0.45, 0.45, 0.45, 0.45, 0.0, 0.0, 0.45, 0.89, 2.24, 2.68, 2.68, 2.68, 2.68, 3.13, 3.58, 4.02, 4.92, 5.36, 5.81, 6.26, 6.71, 6.71, 7.15, 7.6, 8.05, 8.49, 8.94, 8.94, 9.39, 9.83, 10.28, 10.73, 11.18, 11.18, 11.18, 11.62, 11.62, 11.62, 11.62, 11.18, 11.18, 11.18, 11.62, 12.96, 13.41, 13.86, 13.86, 13.41, 13.86, 13.86, 13.86, 13.86, 13.86, 13.86, 13.86, 13.86, 14.3, 14.3, 14.75, 14.3, 14.3, 14.75, 14.75, 14.75, 14.75, 14.75, 14.75, 0.89, 0.89, 0.89, 0.89, 0.89, 0.89, 1.34, 1.34, 1.34, 1.34, 1.34, 1.34, 1.34, 1.79, 1.79, 1.79, 1.79, 1.79, 1.79, 1.79, 1.79, 1.79, 1.79, 1.79, 1.79, 1.34, 1.34, 0.89, 0.0, 0.0, 0.0, 0.0, 0.0, 0.45, 0.45, 0.45, 0.45, 0.45, 0.45, 1.34, 2.24, 2.68, 2.68, 2.24, 2.24, 2.24, 3.13, 4.02, 4.92, 5.81, 6.26, 6.71, 6.71, 7.15, 7.6, 8.05, 8.49, 8.94, 8.94, 9.39, 9.83, 10.28, 10.73, 10.73, 10.73, 10.73, 10.73, 11.18, 11.18, 11.18, 11.18, 10.73, 11.18, 11.18, 12.07, 12.52, 12.96, 13.41, 13.41, 13.41, 13.41, 13.41, 13.41, 13.41, 13.41, 13.86, 13.86, 14.3, 14.3, 14.3, 14.3, 14.3, 14.3, 14.3, 14.75, 14.75, 14.75, 14.3, 0.89, 0.89, 0.89, 0.89, 0.89, 0.89, 0.89, 1.34, 1.34, 1.34, 1.34, 1.34, 1.34, 1.34, 1.34, 1.79, 1.79, 1.79, 1.79, 1.79, 1.79, 1.79, 1.79, 1.79, 1.79, 1.79, 1.79, 1.34, 0.89, 0.45, 0.0, 0.0, 0.0, 0.0, 0.45, 0.45, 0.89, 0.89, 0.89, 0.89, 1.79, 2.24, 2.68, 2.68, 2.68, 2.68, 2.68, 2.68, 3.58, 4.47, 5.36, 6.26, 6.26, 6.71, 7.15, 8.05, 8.49, 8.49, 8.94, 9.39, 9.83, 10.28, 10.28, 10.28, 10.28, 10.28, 10.73, 10.73, 11.18, 11.18, 11.18, 11.18, 11.62, 11.62, 12.07, 12.52, 12.52, 12.96, 12.96, 13.41, 13.41, 13.41, 13.41, 13.41, 13.41, 13.41, 13.41, 13.86, 13.86, 13.86, 14.3, 14.3, 14.3, 14.3, 14.3, 14.3, 14.3, 14.3, 0.45, 0.89, 0.89, 0.89, 0.89, 0.89, 0.89, 1.34, 1.34, 1.34, 1.34, 1.34, 1.34, 1.34, 1.34, 1.34, 1.34, 1.34, 1.34, 1.34, 1.79, 1.79, 1.79, 1.79, 2.24, 1.79, 1.79, 1.79, 1.79, 1.34, 1.34, 0.89, 0.89, 0.89, 0.89, 0.89, 1.34, 1.34, 1.34, 1.34, 1.79, 2.24, 2.68, 3.13, 3.58, 3.58, 3.58, 3.13, 3.13, 3.58, 4.47, 5.36, 5.81, 6.71, 7.15, 7.6, 8.05, 8.49, 8.94, 9.39, 9.83, 9.83, 10.28, 10.28, 10.28, 10.28, 10.73, 10.73, 11.18, 11.62, 11.62, 11.62, 12.07, 12.07, 12.52, 12.52, 12.52, 12.52, 12.96, 13.41, 13.41, 13.41, 13.41, 13.41, 12.96, 13.41, 13.41, 13.41, 13.41, 13.86, 13.86, 13.86, 14.3, 13.86, 13.86, 13.86, 13.86, 13.86, 0.45, 0.45, 0.89, 0.89, 0.89, 0.89, 0.89, 0.89, 1.34, 1.34, 1.34, 1.34, 1.34, 1.34, 1.34, 1.34, 1.34, 1.34, 1.34, 1.34, 1.79, 1.79, 1.79, 1.79, 2.24, 2.24, 2.24, 2.24, 2.24, 2.24, 2.24, 2.24, 2.24, 1.79, 1.79, 1.79, 1.79, 2.24, 2.24, 2.24, 2.24, 2.68, 3.13, 3.58, 4.02, 4.47, 4.47, 4.47, 4.47, 4.02, 4.47, 4.92, 5.36, 6.26, 7.15, 7.6, 8.05, 8.49, 8.94, 9.39, 9.83, 10.28, 10.28, 10.28, 10.73, 10.73, 10.73, 11.18, 11.62, 12.07, 12.52, 12.52, 12.52, 12.52, 12.52, 12.52, 12.52, 12.96, 12.96, 12.96, 12.96, 12.96, 12.96, 12.96, 12.96, 12.96, 12.96, 12.96, 12.96, 12.96, 13.41, 13.41, 13.41, 13.86, 13.41, 13.41, 13.41, 13.41, 0.45, 0.45, 0.45, 0.89, 0.89, 0.89, 0.89, 0.89, 0.89, 1.34, 1.34, 1.34, 1.34, 1.34, 1.34, 1.34, 1.34, 1.34, 1.79, 1.79, 1.79, 1.79, 1.79, 2.24, 2.24, 2.68, 2.68, 2.68, 2.68, 2.68, 2.68, 2.68, 3.13, 3.13, 2.68, 2.68, 2.68, 2.68, 3.13, 3.13, 3.13, 3.58, 4.02, 4.47, 4.92, 4.92, 5.36, 5.36, 5.36, 5.36, 4.92, 4.92, 5.36, 5.81, 6.26, 7.15, 7.6, 8.49, 9.39, 9.83, 10.28, 10.28, 10.28, 10.73, 10.73, 10.73, 11.18, 11.18, 11.62, 12.07, 12.96, 12.96, 13.41, 13.41, 12.96, 12.52, 12.52, 12.52, 12.96, 12.96, 12.52, 12.07, 12.07, 12.96, 12.96, 12.96, 12.96, 12.96, 12.52, 12.52, 12.52, 12.96, 12.96, 13.41, 13.41, 13.41, 13.41, 13.41, 0.45, 0.45, 0.45, 0.45, 0.89, 0.89, 0.89, 0.89, 0.89, 1.34, 1.34, 1.34, 1.34, 1.34, 1.34, 1.34, 1.34, 1.34, 1.79, 1.79, 1.79, 1.79, 2.24, 2.24, 2.68, 2.68, 2.68, 3.13, 3.13, 3.13, 3.13, 3.58, 3.58, 3.58, 3.58, 3.58, 3.58, 3.58, 4.02, 4.02, 4.02, 4.02, 4.47, 4.92, 5.36, 5.36, 5.81, 5.81, 6.26, 6.26, 6.26, 5.81, 5.81, 5.81, 5.81, 5.81, 5.81, 6.71, 7.6, 8.49, 8.94, 8.94, 9.39, 9.83, 10.28, 10.28, 10.28, 10.28, 10.28, 10.73, 12.07, 12.96, 13.41, 13.41, 12.96, 12.52, 12.07, 12.07, 12.07, 12.07, 12.07, 11.62, 11.18, 12.07, 12.52, 12.52, 12.96, 12.96, 12.52, 12.52, 12.52, 12.52, 12.52, 12.96, 12.96, 13.41, 13.41, 13.41, 0.45, 0.45, 0.45, 0.45, 0.89, 0.89, 0.89, 0.89, 0.89, 0.89, 1.34, 1.34, 1.34, 1.34, 1.34, 1.34, 1.34, 1.34, 1.79, 1.79, 1.79, 2.24, 2.24, 2.24, 2.68, 2.68, 2.68, 3.13, 3.13, 3.58, 3.58, 3.58, 3.58, 4.02, 4.02, 4.47, 4.47, 4.47, 4.47, 4.92, 4.92, 4.92, 4.92, 5.36, 5.81, 5.81, 6.26, 6.71, 6.71, 7.15, 7.15, 7.15, 7.15, 7.15, 6.71, 6.71, 5.81, 5.36, 5.36, 6.26, 7.15, 7.6, 8.05, 8.49, 8.94, 8.94, 8.94, 8.49, 8.05, 8.05, 8.94, 10.28, 11.18, 11.62, 11.62, 11.62, 11.62, 11.62, 11.18, 11.18, 11.18, 11.18, 10.73, 11.18, 11.62, 12.07, 12.52, 12.96, 12.96, 12.52, 12.52, 12.52, 12.52, 12.52, 12.96, 12.96, 12.96, 13.41, 0.0, 0.45, 0.45, 0.45, 0.45, 0.89, 0.89, 0.89, 0.89, 0.89, 0.89, 1.34, 1.34, 1.34, 1.34, 1.34, 1.34, 1.34, 1.79, 1.79, 1.79, 2.24, 2.24, 2.68, 2.68, 2.68, 2.68, 3.13, 3.13, 3.58, 3.58, 4.02, 4.02, 4.02, 4.47, 4.47, 4.92, 4.92, 4.92, 5.36, 5.36, 5.36, 5.36, 5.81, 5.81, 6.26, 6.71, 7.15, 7.6, 7.6, 8.05, 8.05, 8.05, 8.05, 8.05, 8.05, 7.6, 6.71, 5.81, 5.81, 7.15, 7.6, 7.6, 8.05, 8.05, 8.49, 8.49, 8.05, 7.6, 6.71, 6.26, 6.71, 7.6, 8.94, 9.83, 10.73, 10.73, 10.73, 10.73, 10.73, 10.73, 11.18, 11.18, 11.18, 11.18, 11.62, 12.07, 12.52, 12.52, 12.52, 12.52, 12.52, 12.07, 12.52, 12.52, 12.96, 12.96, 12.96, 0.0, 0.0, 0.45, 0.45, 0.45, 0.45, 0.89, 0.89, 0.89, 0.89, 0.89, 0.89, 0.89, 1.34, 1.34, 1.34, 1.34, 1.34, 1.79, 1.79, 2.24, 2.24, 2.24, 2.68, 2.68, 2.68, 3.13, 3.13, 3.13, 3.58, 3.58, 4.02, 4.02, 4.47, 4.47, 4.92, 4.92, 5.36, 5.36, 5.36, 5.81, 5.81, 5.81, 6.26, 6.26, 6.71, 7.15, 7.6, 8.05, 8.49, 8.49, 8.49, 8.49, 8.49, 8.49, 8.49, 8.49, 8.49, 7.6, 7.15, 7.6, 8.49, 8.94, 8.94, 8.94, 8.94, 8.94, 8.94, 8.49, 7.6, 6.71, 6.26, 6.71, 8.49, 9.39, 10.28, 10.73, 10.73, 10.73, 10.73, 11.18, 11.62, 11.62, 11.62, 12.07, 11.62, 11.62, 11.62, 12.07, 12.07, 12.52, 12.52, 12.52, 12.52, 12.52, 12.52, 12.52, 12.52, 0.0, 0.0, 0.45, 0.45, 0.45, 0.45, 0.45, 0.89, 0.89, 0.89, 0.89, 0.89, 0.89, 0.89, 1.34, 1.34, 1.34, 1.34, 1.79, 1.79, 2.24, 2.24, 2.68, 2.68, 2.68, 2.68, 3.13, 3.13, 3.58, 3.58, 4.02, 4.02, 4.47, 4.47, 4.92, 4.92, 5.36, 5.36, 5.36, 5.81, 5.81, 5.81, 6.26, 6.26, 6.71, 7.15, 7.6, 8.05, 8.49, 8.49, 8.94, 8.94, 8.94, 8.94, 8.94, 8.94, 8.94, 9.39, 8.94, 8.49, 8.49, 8.94, 9.39, 9.39, 9.83, 9.83, 9.83, 9.83, 8.94, 8.05, 7.15, 6.71, 7.6, 8.49, 9.83, 10.28, 10.28, 10.73, 11.18, 11.18, 11.18, 11.62, 11.62, 12.07, 12.07, 12.07, 11.62, 11.62, 11.62, 12.07, 12.07, 12.52, 12.52, 12.52, 12.52, 12.52, 12.52, 12.52, 0.0, 0.0, 0.0, 0.45, 0.45, 0.45, 0.45, 0.45, 0.89, 0.89, 0.89, 0.89, 0.89, 0.89, 1.34, 1.34, 1.34, 1.34, 1.79, 1.79, 2.24, 2.24, 2.68, 2.68, 2.68, 3.13, 3.13, 3.58, 3.58, 3.58, 4.02, 4.02, 4.47, 4.47, 4.92, 4.92, 5.36, 5.36, 5.81, 5.81, 5.81, 6.26, 6.26, 6.26, 6.71, 7.15, 7.6, 8.05, 8.49, 8.49, 8.94, 8.94, 8.94, 8.94, 8.94, 8.94, 9.39, 9.39, 9.39, 8.94, 8.94, 8.94, 9.39, 9.83, 9.83, 10.28, 10.28, 10.73, 10.28, 9.39, 8.49, 7.6, 8.05, 8.94, 9.83, 9.83, 9.83, 10.28, 10.73, 10.73, 10.73, 11.18, 11.18, 11.62, 11.62, 12.07, 12.07, 12.07, 12.07, 12.07, 12.07, 12.52, 12.96, 12.96, 12.96, 12.96, 12.96, 12.96, 0.0, 0.0, 0.0, 0.0, 0.45, 0.45, 0.45, 0.45, 0.45, 0.89, 0.89, 0.89, 0.89, 0.89, 1.34, 1.34, 1.34, 1.34, 1.79, 1.79, 2.24, 2.24, 2.68, 2.68, 2.68, 3.13, 3.58, 3.58, 3.58, 4.02, 4.02, 4.47, 4.47, 4.47, 4.92, 4.92, 5.36, 5.36, 5.36, 5.81, 5.81, 6.26, 6.26, 6.71, 6.71, 7.15, 7.6, 8.05, 8.05, 8.49, 8.49, 8.94, 8.94, 8.94, 8.94, 8.94, 8.94, 9.39, 9.39, 9.39, 9.39, 9.39, 9.39, 9.83, 9.83, 10.28, 10.73, 10.73, 10.73, 10.28, 9.83, 8.94, 8.49, 9.39, 9.83, 10.28, 9.83, 9.83, 9.83, 10.28, 10.73, 10.73, 10.73, 11.62, 12.07, 12.07, 12.52, 12.52, 12.52, 12.52, 12.52, 12.52, 12.96, 12.96, 12.96, 12.96, 12.96, 12.96, 0.0, 0.0, 0.0, 0.0, 0.45, 0.45, 0.45, 0.45, 0.45, 0.45, 0.89, 0.89, 0.89, 0.89, 1.34, 1.34, 1.34, 1.79, 1.79, 1.79, 2.24, 2.24, 2.68, 2.68, 2.68, 3.13, 3.58, 3.58, 4.02, 4.02, 4.02, 4.47, 4.47, 4.92, 4.92, 4.92, 5.36, 5.36, 5.81, 5.81, 5.81, 6.26, 6.26, 6.71, 7.15, 7.15, 7.6, 7.6, 8.05, 8.49, 8.49, 8.49, 8.94, 8.94, 8.94, 8.94, 8.94, 8.94, 9.39, 9.39, 9.39, 9.39, 9.83, 9.83, 10.28, 10.28, 10.73, 10.73, 10.73, 10.73, 10.73, 10.28, 9.83, 9.83, 10.28, 10.73, 10.73, 10.73, 10.73, 10.73, 11.18, 11.18, 11.18, 11.62, 11.62, 12.07, 12.52, 12.52, 12.52, 12.52, 12.52, 12.52, 12.52, 12.96, 12.96, 12.96, 12.96, 12.96, 0.0, 0.0, 0.0, 0.0, 0.0, 0.45, 0.45, 0.45, 0.45, 0.45, 0.45, 0.89, 0.89, 0.89, 1.34, 1.34, 1.34, 1.79, 1.79, 2.24, 2.24, 2.68, 2.68, 2.68, 3.13, 3.13, 3.58, 3.58, 4.02, 4.02, 4.47, 4.47, 4.47, 4.92, 4.92, 4.92, 5.36, 5.36, 5.36, 5.81, 5.81, 6.26, 6.26, 6.71, 6.71, 7.15, 7.15, 7.6, 7.6, 8.05, 8.05, 8.49, 8.49, 8.49, 8.49, 8.49, 8.94, 8.94, 9.39, 9.39, 9.39, 9.83, 9.83, 9.83, 9.83, 10.28, 10.28, 10.73, 10.73, 10.73, 11.18, 10.73, 10.73, 10.73, 10.73, 10.73, 11.18, 11.62, 11.62, 11.62, 11.18, 11.18, 11.62, 11.62, 12.07, 12.07, 12.07, 12.52, 12.52, 12.96, 12.96, 12.52, 12.52, 12.96, 12.52, 12.52, 12.96, 12.96, 0.0, 0.0, 0.0, 0.0, 0.0, 0.45, 0.45, 0.45, 0.45, 0.45, 0.45, 0.89, 0.89, 0.89, 1.34, 1.34, 1.79, 1.79, 1.79, 2.24, 2.24, 2.68, 2.68, 3.13, 3.13, 3.58, 3.58, 3.58, 4.02, 4.47, 4.47, 4.47, 4.92, 4.92, 4.92, 4.92, 5.36, 5.36, 5.36, 5.81, 5.81, 6.26, 6.26, 6.71, 6.71, 7.15, 7.15, 7.15, 7.6, 7.6, 8.05, 8.05, 8.49, 8.49, 8.49, 8.49, 8.49, 8.94, 9.39, 9.39, 9.39, 9.83, 9.83, 9.83, 9.83, 9.83, 10.28, 10.28, 10.28, 10.73, 10.73, 10.28, 10.73, 11.62, 11.18, 11.18, 12.52, 12.52, 12.52, 12.07, 11.62, 11.62, 11.62, 11.62, 12.07, 12.07, 12.07, 12.07, 12.07, 12.52, 12.96, 12.96, 12.96, 12.96, 12.96, 12.52, 12.52, 12.52, 0.0, 0.0, 0.0, 0.0, 0.0, 0.0, 0.45, 0.45, 0.45, 0.45, 0.45, 0.89, 0.89, 1.34, 1.34, 1.34, 1.79, 1.79, 2.24, 2.24, 2.24, 2.68, 2.68, 3.13, 3.13, 3.58, 3.58, 3.58, 4.02, 4.47, 4.47, 4.47, 4.92, 4.92, 4.92, 4.92, 4.92, 5.36, 5.36, 5.81, 5.81, 6.26, 6.26, 6.26, 6.71, 6.71, 7.15, 7.15, 7.15, 7.6, 7.6, 8.05, 8.05, 8.05, 8.49, 8.49, 8.49, 8.49, 8.94, 9.39, 9.83, 9.39, 9.83, 9.83, 9.83, 9.83, 9.83, 10.28, 10.28, 10.28, 10.28, 9.39, 9.39, 10.73, 11.62, 12.07, 12.96, 13.41, 13.41, 12.96, 12.52, 11.62, 11.62, 11.62, 11.62, 11.62, 11.62, 11.62, 11.62, 12.52, 12.52, 12.52, 12.52, 12.52, 12.52, 12.52, 12.52, 12.52, 0.0, 0.0, 0.0, 0.0, 0.0, 0.0, 0.45, 0.45, 0.45, 0.45, 0.89, 0.89, 0.89, 1.34, 1.34, 1.79, 1.79, 2.24, 2.24, 2.24, 2.68, 2.68, 3.13, 3.13, 3.13, 3.58, 3.58, 4.02, 4.02, 4.02, 4.47, 4.47, 4.92, 4.92, 4.92, 4.92, 4.92, 5.36, 5.36, 5.36, 5.81, 5.81, 6.26, 6.26, 6.71, 6.71, 6.71, 7.15, 7.15, 7.15, 7.6, 7.6, 8.05, 8.05, 8.05, 8.49, 8.49, 8.49, 8.49, 9.39, 9.83, 9.83, 9.83, 9.83, 9.83, 9.83, 9.83, 10.28, 10.28, 10.73, 10.73, 10.28, 8.94, 10.73, 12.07, 12.52, 13.41, 13.86, 13.41, 13.41, 12.96, 12.52, 12.07, 11.62, 11.62, 11.18, 11.18, 11.18, 11.62, 11.62, 12.07, 12.52, 12.52, 12.52, 12.52, 12.52, 12.96, 12.96, 0.0, 0.0, 0.0, 0.0, 0.0, 0.0, 0.45, 0.45, 0.45, 0.45, 0.89, 0.89, 1.34, 1.34, 1.79, 1.79, 2.24, 2.24, 2.24, 2.68, 2.68, 2.68, 3.13, 3.13, 3.13, 3.58, 3.58, 4.02, 4.02, 4.02, 4.02, 4.47, 4.47, 4.92, 4.92, 4.92, 4.92, 5.36, 5.36, 5.36, 5.81, 5.81, 5.81, 6.26, 6.26, 6.71, 6.71, 6.71, 7.15, 7.15, 7.15, 7.6, 7.6, 8.05, 8.05, 8.49, 8.49, 8.49, 8.49, 8.49, 9.39, 9.83, 9.83, 9.83, 10.28, 10.28, 10.28, 10.28, 10.73, 10.73, 11.18, 10.28, 8.94, 9.39, 11.62, 12.96, 13.41, 13.41, 13.41, 13.41, 13.41, 12.96, 12.52, 12.07, 12.07, 11.62, 11.62, 11.62, 11.62, 11.18, 11.62, 12.07, 12.52, 12.52, 12.52, 12.52, 12.96, 12.96, 0.0, 0.0, 0.0, 0.0, 0.0, 0.0, 0.45, 0.45, 0.45, 0.89, 0.89, 0.89, 1.34, 1.79, 1.79, 1.79, 2.24, 2.24, 2.24, 2.68, 2.68, 2.68, 3.13, 3.13, 3.13, 3.58, 3.58, 3.58, 4.02, 4.02, 4.02, 4.47, 4.47, 4.47, 4.92, 4.92, 4.92, 5.36, 5.36, 5.36, 5.81, 5.81, 5.81, 6.26, 6.26, 6.26, 6.71, 6.71, 6.71, 7.15, 7.15, 7.15, 7.6, 8.05, 8.05, 8.49, 8.94, 8.94, 8.94, 8.49, 8.94, 9.39, 9.83, 10.28, 10.28, 10.28, 10.28, 10.28, 10.73, 11.18, 11.62, 11.62, 10.28, 8.94, 10.28, 12.07, 12.96, 12.96, 12.96, 12.96, 13.41, 13.41, 12.96, 12.52, 12.52, 12.07, 12.07, 11.62, 11.62, 11.18, 11.18, 11.62, 12.07, 12.07, 12.52, 12.52, 12.96, 12.96, 0.0, 0.0, 0.0, 0.0, 0.0, 0.45, 0.45, 0.45, 0.89, 0.89, 0.89, 1.34, 1.34, 1.79, 1.79, 2.24, 2.24, 2.24, 2.68, 2.68, 2.68, 2.68, 3.13, 3.13, 3.13, 3.58, 3.58, 3.58, 4.02, 4.02, 4.02, 4.47, 4.47, 4.47, 4.92, 4.92, 4.92, 4.92, 5.36, 5.36, 5.36, 5.81, 5.81, 6.26, 6.26, 6.26, 6.71, 6.71, 6.71, 6.71, 7.15, 7.15, 7.6, 8.05, 8.05, 8.49, 8.94, 8.94, 8.94, 8.94, 8.94, 8.94, 9.39, 9.83, 9.83, 9.83, 10.28, 10.28, 10.73, 10.73, 11.62, 12.07, 11.62, 10.28, 9.83, 10.73, 12.07, 12.52, 12.52, 12.96, 13.41, 13.41, 12.96, 12.96, 12.52, 12.07, 12.07, 11.62, 11.62, 11.62, 11.18, 11.18, 11.62, 12.07, 12.07, 12.52, 12.52, 12.52, 0.0, 0.0, 0.0, 0.0, 0.45, 0.45, 0.45, 0.45, 0.89, 0.89, 1.34, 1.34, 1.79, 1.79, 2.24, 2.24, 2.24, 2.68, 2.68, 2.68, 2.68, 3.13, 3.13, 3.13, 3.58, 3.58, 3.58, 4.02, 4.02, 4.02, 4.47, 4.47, 4.47, 4.47, 4.92, 4.92, 4.92, 4.92, 5.36, 5.36, 5.36, 5.81, 5.81, 6.26, 6.26, 6.26, 6.26, 6.71, 6.71, 6.71, 7.15, 7.15, 7.6, 8.05, 8.49, 8.49, 8.94, 9.39, 9.39, 9.39, 8.94, 8.94, 8.94, 9.39, 9.39, 9.83, 9.83, 10.28, 10.28, 10.73, 11.18, 11.62, 12.07, 11.62, 10.73, 10.28, 10.73, 11.62, 12.07, 12.52, 12.96, 12.96, 12.96, 12.96, 12.52, 12.07, 12.07, 11.62, 11.62, 11.62, 11.62, 11.18, 11.18, 11.62, 12.07, 12.07, 12.07, 12.07, 0.0, 0.0, 0.0, 0.45, 0.45, 0.45, 0.45, 0.89, 0.89, 1.34, 1.34, 1.79, 1.79, 2.24, 2.24, 2.24, 2.68, 2.68, 2.68, 2.68, 3.13, 3.13, 3.13, 3.13, 3.58, 3.58, 3.58, 4.02, 4.02, 4.47, 4.47, 4.47, 4.47, 4.92, 4.92, 4.92, 4.92, 4.92, 5.36, 5.36, 5.36, 5.81, 5.81, 5.81, 6.26, 6.26, 6.26, 6.26, 6.71, 6.71, 7.15, 7.15, 7.6, 8.05, 8.49, 8.94, 8.94, 9.39, 9.39, 9.39, 9.39, 8.94, 8.94, 8.94, 9.39, 9.83, 10.28, 10.28, 10.73, 10.73, 10.73, 11.18, 11.62, 12.07, 12.07, 11.18, 10.28, 10.28, 11.18, 12.52, 12.52, 12.52, 12.96, 12.96, 12.96, 12.52, 12.07, 11.62, 11.62, 11.62, 11.62, 11.62, 11.18, 11.18, 11.62, 11.62, 11.62, 11.62, 0.0, 0.0, 0.0, 0.45, 0.45, 0.45, 0.89, 0.89, 0.89, 1.34, 1.79, 1.79, 2.24, 2.24, 2.24, 2.68, 2.68, 2.68, 2.68, 3.13, 3.13, 3.13, 3.13, 3.58, 3.58, 4.02, 4.02, 4.02, 4.02, 4.47, 4.47, 4.47, 4.47, 4.92, 4.92, 4.92, 4.92, 4.92, 5.36, 5.36, 5.36, 5.81, 5.81, 5.81, 6.26, 6.26, 6.26, 6.71, 6.71, 6.71, 7.15, 7.6, 8.05, 8.05, 8.49, 8.94, 8.94, 9.39, 9.39, 9.39, 9.39, 9.39, 9.39, 9.39, 9.39, 9.83, 9.83, 10.28, 10.73, 10.73, 10.73, 10.73, 11.18, 12.07, 12.52, 12.07, 11.18, 10.28, 10.73, 11.62, 12.52, 12.52, 12.52, 12.96, 12.96, 12.96, 12.52, 12.07, 11.62, 11.62, 11.62, 11.62, 11.18, 11.18, 11.18, 11.18, 11.18, 11.18, 0.0, 0.0, 0.45, 0.45, 0.45, 0.89, 0.89, 0.89, 1.34, 1.34, 1.79, 2.24, 2.24, 2.24, 2.68, 2.68, 2.68, 3.13, 3.13, 3.13, 3.13, 3.58, 3.58, 3.58, 4.02, 4.02, 4.02, 4.02, 4.47, 4.47, 4.47, 4.47, 4.47, 4.92, 4.92, 4.92, 4.92, 5.36, 5.36, 5.36, 5.36, 5.81, 5.81, 5.81, 6.26, 6.26, 6.26, 6.71, 6.71, 7.15, 7.15, 7.6, 8.05, 8.49, 8.49, 8.94, 8.94, 8.94, 8.94, 9.39, 9.39, 9.39, 9.39, 9.39, 9.83, 9.83, 9.39, 9.39, 9.83, 10.73, 10.73, 10.73, 10.73, 11.18, 12.52, 12.96, 12.07, 11.18, 10.73, 11.18, 11.62, 12.07, 12.52, 12.52, 12.52, 12.52, 12.52, 12.07, 12.07, 11.62, 11.62, 11.62, 11.18, 10.73, 10.73, 10.73, 10.73, 10.73, 0.45, 0.45, 0.45, 0.45, 0.89, 0.89, 0.89, 1.34, 1.34, 1.79, 1.79, 1.79, 2.24, 2.24, 2.68, 2.68, 2.68, 3.13, 3.13, 3.58, 3.58, 3.58, 3.58, 4.02, 4.02, 4.02, 4.02, 4.02, 4.47, 4.47, 4.47, 4.47, 4.47, 4.92, 4.92, 4.92, 4.92, 5.36, 5.36, 5.36, 5.36, 5.81, 5.81, 5.81, 6.26, 6.26, 6.26, 6.71, 6.71, 7.15, 7.6, 8.05, 8.05, 8.49, 8.49, 8.49, 8.49, 8.94, 8.94, 9.39, 9.39, 9.39, 9.83, 9.83, 9.83, 9.83, 9.83, 9.39, 9.39, 9.83, 10.73, 10.73, 10.73, 10.28, 11.18, 12.07, 12.07, 11.62, 11.62, 11.62, 11.62, 11.62, 12.07, 12.07, 12.52, 12.52, 12.52, 12.07, 12.07, 12.07, 11.62, 11.62, 11.18, 11.18, 10.73, 10.73, 10.73, 10.73, 0.45, 0.45, 0.45, 0.89, 0.89, 0.89, 1.34, 1.34, 1.79, 1.79, 1.79, 2.24, 2.24, 2.68, 2.68, 2.68, 3.13, 3.13, 3.13, 3.58, 3.58, 3.58, 3.58, 4.02, 4.02, 4.02, 4.02, 4.02, 4.47, 4.47, 4.47, 4.47, 4.47, 4.92, 4.92, 4.92, 4.92, 5.36, 5.36, 5.36, 5.36, 5.81, 5.81, 6.26, 6.26, 6.26, 6.26, 6.71, 7.15, 7.15, 7.6, 8.05, 8.05, 8.05, 8.05, 8.49, 8.49, 8.94, 8.94, 9.39, 9.39, 9.83, 9.83, 9.83, 9.83, 9.83, 10.28, 10.28, 9.83, 9.83, 9.83, 10.73, 10.73, 10.73, 10.28, 10.73, 11.62, 11.62, 12.07, 12.07, 11.62, 11.18, 11.62, 11.62, 12.07, 12.07, 12.07, 12.07, 12.07, 12.07, 12.07, 11.62, 11.62, 11.18, 10.73, 10.73, 10.73, 10.73, 0.45, 0.45, 0.45, 0.89, 0.89, 1.34, 1.34, 1.79, 1.79, 1.79, 2.24, 2.24, 2.24, 2.68, 2.68, 3.13, 3.13, 3.13, 3.58, 3.58, 3.58, 3.58, 3.58, 4.02, 4.02, 4.02, 4.02, 4.02, 4.47, 4.47, 4.47, 4.47, 4.47, 4.92, 4.92, 4.92, 4.92, 5.36, 5.36, 5.36, 5.81, 5.81, 5.81, 6.26, 6.26, 6.71, 6.71, 6.71, 7.15, 7.6, 7.6, 7.6, 8.05, 8.05, 8.49, 8.49, 8.94, 8.94, 8.94, 9.39, 9.39, 9.83, 9.83, 9.83, 9.83, 9.83, 10.28, 10.28, 10.28, 10.28, 9.83, 10.28, 10.73, 11.18, 10.28, 9.83, 10.73, 11.62, 11.62, 11.62, 11.18, 11.18, 11.18, 11.62, 11.62, 11.62, 11.62, 11.62, 11.62, 11.62, 11.62, 11.62, 11.62, 11.18, 11.18, 10.73, 10.73, 10.73, 0.45, 0.45, 0.89, 0.89, 0.89, 1.34, 1.34, 1.79, 1.79, 2.24, 2.24, 2.24, 2.24, 2.68, 2.68, 3.13, 3.13, 3.13, 3.58, 3.58, 3.58, 3.58, 3.58, 4.02, 4.02, 4.02, 4.02, 4.02, 4.02, 4.47, 4.47, 4.47, 4.47, 4.92, 4.92, 4.92, 4.92, 5.36, 5.36, 5.36, 5.81, 5.81, 6.26, 6.26, 6.26, 6.71, 6.71, 7.15, 7.15, 7.6, 7.6, 7.6, 8.05, 8.05, 8.49, 8.49, 8.94, 8.94, 9.39, 9.39, 9.83, 9.83, 9.83, 9.83, 9.83, 10.28, 10.28, 10.28, 10.73, 10.28, 10.28, 10.28, 10.73, 11.18, 11.18, 9.83, 9.83, 10.73, 11.18, 11.18, 11.18, 11.18, 11.18, 11.18, 11.18, 11.18, 11.18, 11.18, 11.62, 11.62, 11.62, 11.62, 11.18, 11.18, 11.18, 10.73, 10.73, 10.73, 0.45, 0.45, 0.89, 0.89, 0.89, 1.34, 1.34, 1.79, 1.79, 2.24, 2.24, 2.24, 2.68, 2.68, 2.68, 3.13, 3.13, 3.13, 3.58, 3.58, 3.58, 3.58, 3.58, 4.02, 4.02, 4.02, 4.02, 4.02, 4.02, 4.02, 4.47, 4.47, 4.47, 4.92, 4.92, 4.92, 4.92, 5.36, 5.36, 5.36, 5.81, 5.81, 6.26, 6.26, 6.26, 6.71, 7.15, 7.15, 7.15, 7.15, 7.6, 7.6, 7.6, 8.05, 8.05, 8.49, 8.94, 8.94, 9.39, 9.83, 9.83, 9.83, 10.28, 10.28, 10.28, 10.28, 10.28, 10.73, 10.73, 10.73, 10.73, 10.28, 10.28, 10.73, 11.18, 10.28, 9.83, 10.28, 10.73, 10.73, 10.73, 10.73, 11.18, 11.18, 11.18, 11.18, 11.18, 11.18, 11.18, 11.18, 11.18, 11.18, 11.18, 11.18, 11.18, 10.73, 10.73, 10.73, 0.45, 0.45, 0.89, 0.89, 0.89, 1.34, 1.34, 1.79, 1.79, 2.24, 2.24, 2.24, 2.68, 2.68, 2.68, 2.68, 3.13, 3.13, 3.58, 3.58, 3.58, 3.58, 3.58, 3.58, 4.02, 4.02, 4.02, 4.02, 4.02, 4.02, 4.47, 4.47, 4.47, 4.92, 4.92, 4.92, 4.92, 5.36, 5.36, 5.81, 5.81, 5.81, 6.26, 6.26, 6.71, 6.71, 7.15, 7.15, 7.15, 7.6, 7.6, 7.6, 7.6, 8.05, 8.05, 8.49, 8.49, 8.94, 9.39, 9.83, 9.83, 10.28, 10.28, 10.28, 10.28, 10.28, 10.73, 10.73, 10.73, 11.18, 11.18, 10.73, 10.73, 10.73, 10.73, 10.73, 9.83, 9.83, 9.83, 10.28, 10.73, 10.73, 11.18, 11.18, 10.73, 10.73, 10.73, 11.18, 11.18, 11.18, 11.18, 11.18, 11.18, 11.18, 11.18, 11.18, 10.73, 10.73, 0.45, 0.45, 0.89, 0.89, 0.89, 1.34, 1.34, 1.79, 1.79, 1.79, 2.24, 2.24, 2.24, 2.68, 2.68, 2.68, 3.13, 3.13, 3.13, 3.58, 3.58, 3.58, 3.58, 3.58, 4.02, 4.02, 4.02, 4.02, 4.02, 4.02, 4.47, 4.47, 4.47, 4.92, 4.92, 4.92, 5.36, 5.36, 5.36, 5.81, 5.81, 5.81, 6.26, 6.26, 6.71, 6.71, 7.15, 7.15, 7.6, 7.6, 7.6, 7.6, 7.6, 8.05, 8.05, 8.49, 8.49, 8.94, 9.39, 9.39, 9.83, 9.83, 10.28, 10.28, 10.28, 10.28, 10.73, 10.73, 10.73, 11.18, 11.18, 11.18, 10.73, 10.28, 9.83, 10.28, 10.28, 9.83, 9.83, 9.83, 10.28, 10.73, 10.73, 10.73, 10.73, 10.73, 10.73, 11.18, 11.18, 11.18, 11.18, 11.18, 11.18, 11.18, 11.18, 11.18, 11.18, 10.73, 0.45, 0.45, 0.89, 0.89, 0.89, 1.34, 1.34, 1.34, 1.79, 1.79, 2.24, 2.24, 2.24, 2.68, 2.68, 2.68, 3.13, 3.13, 3.13, 3.58, 3.58, 3.58, 3.58, 3.58, 4.02, 4.02, 4.02, 4.02, 4.02, 4.47, 4.47, 4.47, 4.92, 4.92, 4.92, 4.92, 5.36, 5.36, 5.36, 5.81, 5.81, 6.26, 6.26, 6.26, 6.71, 6.71, 7.15, 7.15, 7.6, 7.6, 7.6, 8.05, 8.05, 8.05, 8.05, 8.49, 8.49, 8.49, 8.94, 9.39, 9.39, 9.83, 9.83, 10.28, 10.28, 10.28, 10.28, 10.73, 10.73, 10.73, 11.18, 11.18, 11.18, 10.28, 9.39, 9.39, 10.28, 10.28, 9.83, 9.83, 10.28, 10.73, 10.73, 10.73, 10.73, 10.73, 10.73, 11.18, 11.18, 11.18, 11.18, 11.18, 11.18, 11.18, 11.18, 11.18, 11.18, 11.18, 0.45, 0.45, 0.89, 0.89, 0.89, 1.34, 1.34, 1.34, 1.79, 1.79, 1.79, 2.24, 2.24, 2.24, 2.68, 2.68, 3.13, 3.13, 3.13, 3.58, 3.58, 3.58, 3.58, 4.02, 4.02, 4.02, 4.02, 4.02, 4.47, 4.47, 4.47, 4.92, 4.92, 4.92, 4.92, 5.36, 5.36, 5.36, 5.81, 5.81, 5.81, 6.26, 6.26, 6.71, 6.71, 6.71, 7.15, 7.15, 7.15, 7.6, 7.6, 8.05, 8.05, 8.05, 8.49, 8.49, 8.49, 8.94, 8.94, 9.39, 9.39, 9.39, 9.83, 9.83, 10.28, 10.28, 10.28, 10.73, 10.73, 10.73, 10.73, 11.18, 11.18, 11.18, 9.83, 8.49, 8.94, 10.28, 9.83, 9.83, 10.28, 10.73, 10.73, 10.73, 10.73, 10.73, 10.73, 11.18, 11.18, 11.18, 11.18, 11.18, 11.18, 11.18, 11.18, 11.18, 11.18, 11.18, 0.45, 0.45, 0.89, 0.89, 0.89, 1.34, 1.34, 1.34, 1.79, 1.79, 2.24, 2.24, 2.24, 2.68, 2.68, 2.68, 3.13, 3.13, 3.13, 3.58, 3.58, 3.58, 3.58, 4.02, 4.02, 4.02, 4.02, 4.47, 4.47, 4.47, 4.92, 4.92, 4.92, 4.92, 5.36, 5.36, 5.36, 5.36, 5.81, 5.81, 6.26, 6.26, 6.26, 6.71, 6.71, 6.71, 7.15, 7.15, 7.6, 7.6, 7.6, 8.05, 8.05, 8.05, 8.49, 8.49, 8.49, 8.94, 8.94, 9.39, 9.39, 9.39, 9.39, 9.39, 9.83, 9.83, 10.28, 10.28, 10.73, 10.73, 10.73, 10.73, 11.18, 11.18, 10.73, 8.94, 7.6, 8.49, 9.39, 9.83, 9.83, 10.28, 10.73, 10.28, 10.73, 10.73, 10.73, 10.73, 10.73, 11.18, 11.18, 11.18, 11.18, 11.18, 11.18, 11.18, 11.18, 11.18, 0.45, 0.45, 0.89, 0.89, 1.34, 1.34, 1.34, 1.79, 1.79, 1.79, 2.24, 2.24, 2.24, 2.68, 2.68, 2.68, 3.13, 3.13, 3.13, 3.58, 3.58, 3.58, 4.02, 4.02, 4.02, 4.47, 4.47, 4.47, 4.92, 4.92, 4.92, 4.92, 4.92, 5.36, 5.36, 5.36, 5.36, 5.81, 5.81, 5.81, 6.26, 6.26, 6.26, 6.71, 6.71, 7.15, 7.15, 7.15, 7.6, 7.6, 8.05, 8.05, 8.05, 8.49, 8.49, 8.49, 8.94, 8.94, 8.94, 9.39, 9.39, 9.39, 9.39, 9.39, 9.83, 9.83, 9.83, 10.28, 10.28, 10.28, 10.73, 10.73, 11.18, 11.18, 11.18, 10.28, 8.49, 7.6, 8.49, 9.39, 9.39, 9.83, 9.83, 10.28, 10.28, 10.73, 10.73, 10.73, 10.73, 10.73, 10.73, 10.73, 11.18, 11.18, 11.18, 11.18, 11.18, 11.18, 0.89, 0.89, 0.89, 0.89, 1.34, 1.34, 1.34, 1.79, 1.79, 2.24, 2.24, 2.24, 2.68, 2.68, 2.68, 3.13, 3.13, 3.13, 3.13, 3.58, 3.58, 4.02, 4.02, 4.02, 4.47, 4.47, 4.47, 4.92, 4.92, 4.92, 4.92, 4.92, 5.36, 5.36, 5.36, 5.36, 5.81, 5.81, 5.81, 6.26, 6.26, 6.26, 6.71, 6.71, 6.71, 7.15, 7.15, 7.6, 7.6, 7.6, 8.05, 8.05, 8.05, 8.49, 8.49, 8.49, 8.94, 8.94, 8.94, 8.94, 8.94, 9.39, 9.39, 9.39, 9.39, 9.83, 9.83, 9.83, 10.28, 10.28, 10.28, 10.73, 10.73, 10.73, 10.73, 10.73, 9.83, 8.49, 8.05, 8.49, 8.94, 9.39, 9.39, 9.83, 9.83, 10.28, 10.28, 10.28, 10.73, 10.73, 10.73, 10.73, 10.73, 10.73, 11.18, 11.18, 11.18, 11.18, 0.89, 0.89, 0.89, 1.34, 1.34, 1.34, 1.79, 1.79, 2.24, 2.24, 2.24, 2.24, 2.68, 2.68, 2.68, 3.13, 3.13, 3.13, 3.58, 3.58, 4.02, 4.02, 4.02, 4.47, 4.47, 4.47, 4.92, 4.92, 4.92, 4.92, 4.92, 5.36, 5.36, 5.36, 5.36, 5.81, 5.81, 5.81, 6.26, 6.26, 6.26, 6.71, 6.71, 6.71, 7.15, 7.15, 7.15, 7.6, 7.6, 7.6, 8.05, 8.05, 8.05, 8.49, 8.49, 8.94, 8.94, 8.94, 8.94, 8.94, 8.94, 8.94, 9.39, 9.39, 9.39, 9.39, 9.39, 9.83, 9.83, 10.28, 10.28, 10.28, 10.28, 10.73, 10.73, 10.73, 10.28, 9.39, 8.49, 8.05, 8.49, 8.94, 8.94, 8.94, 9.39, 9.83, 10.28, 10.28, 10.28, 10.28, 10.73, 10.73, 10.73, 10.73, 10.73, 10.73, 10.73, 10.73, 0.89, 0.89, 1.34, 1.34, 1.34, 1.79, 1.79, 2.24, 2.24, 2.24, 2.68, 2.68, 2.68, 2.68, 3.13, 3.13, 3.13, 3.58, 3.58, 3.58, 4.02, 4.02, 4.47, 4.47, 4.47, 4.92, 4.92, 4.92, 4.92, 4.92, 5.36, 5.36, 5.36, 5.36, 5.36, 5.81, 5.81, 6.26, 6.26, 6.26, 6.26, 6.71, 6.71, 6.71, 7.15, 7.15, 7.6, 7.6, 7.6, 7.6, 8.05, 8.05, 8.05, 8.49, 8.49, 8.49, 8.94, 8.94, 8.94, 8.94, 8.94, 8.94, 8.94, 9.39, 9.39, 9.39, 9.39, 9.39, 9.39, 9.83, 9.83, 10.28, 10.28, 10.28, 10.28, 10.73, 10.28, 9.83, 9.39, 8.49, 8.49, 8.49, 8.49, 8.94, 9.39, 9.39, 9.83, 9.83, 9.83, 10.28, 10.73, 10.73, 10.73, 10.73, 10.73, 10.73, 10.73, 10.73, 1.34, 1.34, 1.34, 1.34, 1.79, 1.79, 2.24, 2.24, 2.24, 2.68, 2.68, 2.68, 3.13, 3.13, 3.13, 3.13, 3.58, 3.58, 3.58, 4.02, 4.02, 4.47, 4.47, 4.47, 4.47, 4.92, 4.92, 4.92, 4.92, 5.36, 5.36, 5.36, 5.36, 5.36, 5.81, 5.81, 5.81, 6.26, 6.26, 6.26, 6.71, 6.71, 6.71, 7.15, 7.15, 7.15, 7.6, 7.6, 7.6, 7.6, 8.05, 8.05, 8.05, 8.49, 8.49, 8.49, 8.49, 8.49, 8.49, 8.49, 8.94, 8.94, 8.94, 8.94, 8.94, 9.39, 9.39, 9.39, 9.39, 9.39, 9.83, 9.83, 9.83, 10.28, 10.28, 10.28, 10.28, 9.83, 9.39, 8.94, 8.49, 8.49, 8.49, 8.94, 9.39, 9.39, 9.39, 9.83, 9.83, 10.28, 10.73, 10.73, 10.73, 10.73, 10.73, 10.73, 10.73, 10.73, 1.34, 1.34, 1.79, 1.79, 1.79, 2.24, 2.24, 2.24, 2.68, 2.68, 2.68, 3.13, 3.13, 3.13, 3.13, 3.58, 3.58, 3.58, 4.02, 4.02, 4.02, 4.47, 4.47, 4.47, 4.92, 4.92, 4.92, 4.92, 4.92, 5.36, 5.36, 5.36, 5.36, 5.81, 5.81, 5.81, 6.26, 6.26, 6.26, 6.71, 6.71, 6.71, 7.15, 7.15, 7.15, 7.6, 7.6, 7.6, 7.6, 7.6, 8.05, 8.05, 8.05, 8.05, 8.49, 8.49, 8.49, 8.49, 8.49, 8.49, 8.49, 8.49, 8.94, 8.94, 8.94, 8.94, 8.94, 9.39, 9.39, 9.39, 9.39, 9.83, 9.83, 9.83, 9.83, 9.83, 9.83, 9.83, 9.39, 8.94, 8.49, 8.49, 8.05, 8.49, 9.39, 9.39, 9.39, 9.39, 9.83, 10.28, 10.28, 10.73, 10.73, 10.73, 10.28, 10.28, 10.28, 10.28, 1.79, 1.79, 1.79, 1.79, 2.24, 2.24, 2.24, 2.68, 2.68, 2.68, 3.13, 3.13, 3.13, 3.13, 3.58, 3.58, 3.58, 4.02, 4.02, 4.02, 4.02, 4.47, 4.47, 4.47, 4.92, 4.92, 4.92, 4.92, 4.92, 5.36, 5.36, 5.36, 5.81, 5.81, 5.81, 6.26, 6.26, 6.26, 6.71, 6.71, 6.71, 6.71, 7.15, 7.15, 7.15, 7.6, 7.6, 7.6, 7.6, 7.6, 8.05, 8.05, 8.05, 8.05, 8.05, 8.49, 8.49, 8.49, 8.49, 8.49, 8.49, 8.49, 8.49, 8.49, 8.94, 8.94, 8.94, 8.94, 9.39, 9.39, 9.39, 9.39, 9.83, 9.39, 9.39, 9.39, 9.39, 9.39, 9.39, 8.94, 8.49, 8.49, 7.6, 8.05, 8.49, 8.94, 9.39, 9.39, 9.39, 9.83, 10.28, 10.28, 10.28, 10.28, 10.28, 10.28, 10.28, 10.28, 1.79, 1.79, 1.79, 2.24, 2.24, 2.24, 2.68, 2.68, 2.68, 3.13, 3.13, 3.13, 3.13, 3.58, 3.58, 3.58, 3.58, 4.02, 4.02, 4.02, 4.47, 4.47, 4.47, 4.47, 4.92, 4.92, 4.92, 4.92, 5.36, 5.36, 5.36, 5.36, 5.81, 5.81, 5.81, 6.26, 6.26, 6.26, 6.71, 6.71, 6.71, 6.71, 7.15, 7.15, 7.15, 7.15, 7.6, 7.6, 7.6, 7.6, 8.05, 8.05, 8.05, 8.05, 8.05, 8.05, 8.05, 8.05, 8.05, 8.05, 8.49, 8.49, 8.49, 8.49, 8.49, 8.49, 8.94, 8.94, 8.94, 8.94, 8.94, 9.39, 9.39, 9.39, 9.39, 9.39, 9.39, 9.39, 8.94, 8.94, 8.49, 8.05, 7.6, 7.6, 8.05, 8.94, 8.94, 9.39, 9.39, 9.39, 9.83, 9.83, 10.28, 10.28, 10.28, 10.28, 10.28, 10.28, 1.79, 1.79, 1.79, 2.24, 2.24, 2.24, 2.68, 2.68, 2.68, 3.13, 3.13, 3.13, 3.58, 3.58, 3.58, 3.58, 4.02, 4.02, 4.02, 4.02, 4.47, 4.47, 4.47, 4.47, 4.92, 4.92, 4.92, 4.92, 5.36, 5.36, 5.36, 5.81, 5.81, 5.81, 6.26, 6.26, 6.26, 6.26, 6.71, 6.71, 6.71, 6.71, 7.15, 7.15, 7.15, 7.15, 7.15, 7.6, 7.6, 7.6, 7.6, 7.6, 8.05, 8.05, 8.05, 8.05, 8.05, 8.05, 8.05, 8.05, 8.05, 8.05, 8.49, 8.49, 8.49, 8.49, 8.49, 8.49, 8.49, 8.49, 8.49, 8.94, 8.94, 8.94, 9.39, 9.39, 8.94, 8.94, 8.94, 8.94, 8.49, 8.05, 7.6, 7.6, 8.49, 8.49, 8.94, 8.94, 9.39, 9.39, 9.39, 9.39, 9.83, 9.83, 9.83, 9.83, 9.83, 9.83, 1.79, 1.79, 2.24, 2.24, 2.24, 2.68, 2.68, 2.68, 3.13, 3.13, 3.13, 3.13, 3.58, 3.58, 3.58, 3.58, 4.02, 4.02, 4.02, 4.02, 4.47, 4.47, 4.47, 4.47, 4.92, 4.92, 4.92, 4.92, 5.36, 5.36, 5.36, 5.81, 5.81, 5.81, 6.26, 6.26, 6.26, 6.26, 6.71, 6.71, 6.71, 6.71, 6.71, 7.15, 7.15, 7.15, 7.15, 7.15, 7.6, 7.6, 7.6, 7.6, 7.6, 7.6, 8.05, 8.05, 8.05, 8.05, 8.05, 8.05, 8.05, 8.05, 8.05, 8.05, 8.05, 8.05, 8.49, 8.49, 8.49, 8.49, 8.49, 8.49, 8.49, 8.49, 8.94, 8.94, 8.94, 8.94, 8.94, 8.49, 8.49, 8.05, 7.6, 8.05, 8.49, 8.49, 8.94, 8.94, 9.39, 9.39, 9.39, 9.39, 9.39, 9.39, 9.83, 9.83, 9.83, 9.83, 1.79, 1.79, 2.24, 2.24, 2.24, 2.68, 2.68, 2.68, 3.13, 3.13, 3.13, 3.13, 3.13, 3.58, 3.58, 3.58, 3.58, 4.02, 4.02, 4.02, 4.02, 4.47, 4.47, 4.47, 4.92, 4.92, 4.92, 5.36, 5.36, 5.36, 5.36, 5.81, 5.81, 5.81, 6.26, 6.26, 6.26, 6.26, 6.26, 6.71, 6.71, 6.71, 6.71, 6.71, 7.15, 7.15, 7.15, 7.15, 7.15, 7.6, 7.6, 7.6, 7.6, 7.6, 7.6, 7.6, 7.6, 7.6, 8.05, 8.05, 8.05, 8.05, 8.05, 8.05, 8.05, 8.05, 8.05, 8.49, 8.49, 8.49, 8.49, 8.49, 8.49, 8.49, 8.49, 8.94, 8.94, 8.49, 8.49, 8.49, 8.49, 8.05, 7.6, 8.05, 8.49, 8.49, 8.94, 8.94, 9.39, 9.39, 9.39, 9.39, 9.39, 9.39, 9.39, 9.83, 9.83, 9.83, 1.79, 1.79, 2.24, 2.24, 2.24, 2.68, 2.68, 2.68, 2.68, 3.13, 3.13, 3.13, 3.13, 3.58, 3.58, 3.58, 3.58, 4.02, 4.02, 4.02, 4.02, 4.47, 4.47, 4.47, 4.92, 4.92, 4.92, 5.36, 5.36, 5.36, 5.36, 5.81, 5.81, 5.81, 6.26, 6.26, 6.26, 6.26, 6.26, 6.26, 6.71, 6.71, 6.71, 6.71, 6.71, 7.15, 7.15, 7.15, 7.15, 7.15, 7.6, 7.6, 7.6, 7.6, 7.6, 7.6, 7.6, 7.6, 7.6, 7.6, 8.05, 8.05, 8.05, 8.05, 8.05, 8.05, 8.05, 8.05, 8.49, 8.49, 8.49, 8.49, 8.49, 8.49, 8.49, 8.49, 8.49, 8.49, 8.49, 8.49, 8.05, 8.05, 7.15, 7.15, 8.05, 8.49, 8.94, 8.94, 8.94, 9.39, 9.39, 9.39, 9.39, 9.39, 9.39, 9.39, 9.39, 9.39, 1.79, 1.79, 2.24, 2.24, 2.24, 2.68, 2.68, 2.68, 2.68, 3.13, 3.13, 3.13, 3.13, 3.13, 3.58, 3.58, 3.58, 3.58, 4.02, 4.02, 4.02, 4.47, 4.47, 4.47, 4.92, 4.92, 4.92, 5.36, 5.36, 5.36, 5.36, 5.81, 5.81, 5.81, 5.81, 6.26, 6.26, 6.26, 6.26, 6.26, 6.26, 6.26, 6.71, 6.71, 6.71, 6.71, 7.15, 7.15, 7.15, 7.15, 7.15, 7.6, 7.6, 7.6, 7.6, 7.6, 7.6, 7.6, 7.6, 7.6, 8.05, 8.05, 8.05, 8.05, 8.05, 8.05, 8.49, 8.49, 8.49, 8.49, 8.49, 8.49, 8.49, 8.49, 8.49, 8.49, 8.49, 8.49, 8.49, 8.05, 8.05, 7.6, 7.15, 6.71, 7.15, 8.49, 8.49, 8.49, 8.49, 8.94, 8.94, 9.39, 9.39, 9.39, 9.39, 9.39, 9.39, 9.39, 1.79, 1.79, 1.79, 2.24, 2.24, 2.24, 2.68, 2.68, 2.68, 2.68, 3.13, 3.13, 3.13, 3.13, 3.58, 3.58, 3.58, 3.58, 4.02, 4.02, 4.02, 4.47, 4.47, 4.47, 4.92, 4.92, 4.92, 5.36, 5.36, 5.36, 5.36, 5.81, 5.81, 5.81, 5.81, 5.81, 6.26, 6.26, 6.26, 6.26, 6.26, 6.26, 6.71, 6.71, 6.71, 6.71, 6.71, 7.15, 7.15, 7.15, 7.15, 7.15, 7.6, 7.6, 7.6, 7.6, 7.6, 7.6, 7.6, 7.6, 8.05, 8.05, 8.05, 8.05, 8.05, 8.05, 8.49, 8.49, 8.49, 8.49, 8.49, 8.49, 8.49, 8.49, 8.49, 8.49, 8.49, 8.49, 8.49, 8.05, 8.05, 7.6, 7.15, 6.71, 6.71, 7.6, 8.05, 8.49, 8.49, 8.49, 8.49, 8.94, 8.94, 8.94, 9.39, 9.39, 9.39, 9.39, 1.79, 1.79, 1.79, 2.24, 2.24, 2.24, 2.24, 2.68, 2.68, 2.68, 2.68, 3.13, 3.13, 3.13, 3.13, 3.58, 3.58, 3.58, 4.02, 4.02, 4.02, 4.02, 4.47, 4.47, 4.92, 4.92, 4.92, 4.92, 5.36, 5.36, 5.36, 5.36, 5.81, 5.81, 5.81, 5.81, 5.81, 5.81, 6.26, 6.26, 6.26, 6.26, 6.26, 6.71, 6.71, 6.71, 6.71, 6.71, 7.15, 7.15, 7.15, 7.15, 7.15, 7.6, 7.6, 7.6, 7.6, 7.6, 7.6, 7.6, 7.6, 8.05, 8.05, 8.05, 8.05, 8.05, 8.05, 8.49, 8.49, 8.49, 8.49, 8.49, 8.49, 8.49, 8.49, 8.49, 8.49, 8.49, 8.49, 8.05, 8.05, 7.6, 7.6, 7.15, 6.71, 7.15, 8.05, 8.49, 8.49, 8.49, 8.05, 8.49, 8.49, 8.49, 8.94, 8.94, 8.94, 8.94, 1.79, 1.79, 1.79, 1.79, 2.24, 2.24, 2.24, 2.24, 2.68, 2.68, 2.68, 2.68, 3.13, 3.13, 3.13, 3.58, 3.58, 3.58, 3.58, 4.02, 4.02, 4.02, 4.47, 4.47, 4.92, 4.92, 4.92, 4.92, 5.36, 5.36, 5.36, 5.36, 5.36, 5.81, 5.81, 5.81, 5.81, 5.81, 5.81, 6.26, 6.26, 6.26, 6.26, 6.71, 6.71, 6.71, 6.71, 6.71, 6.71, 6.71, 7.15, 7.15, 7.15, 7.15, 7.15, 7.6, 7.6, 7.6, 7.6, 7.6, 7.6, 7.6, 7.6, 8.05, 8.05, 8.05, 8.05, 8.05, 8.05, 8.49, 8.49, 8.49, 8.49, 8.49, 8.49, 8.05, 8.05, 8.05, 8.05, 8.05, 8.05, 7.6, 7.6, 7.15, 6.71, 6.71, 7.6, 8.05, 8.49, 8.49, 8.49, 8.49, 8.49, 8.49, 8.49, 8.49, 8.49, 8.49, 1.34, 1.34, 1.79, 1.79, 1.79, 2.24, 2.24, 2.24, 2.24, 2.68, 2.68, 2.68, 3.13, 3.13, 3.13, 3.13, 3.58, 3.58, 3.58, 4.02, 4.02, 4.02, 4.47, 4.47, 4.47, 4.92, 4.92, 4.92, 4.92, 5.36, 5.36, 5.36, 5.36, 5.36, 5.81, 5.81, 5.81, 5.81, 5.81, 6.26, 6.26, 6.26, 6.26, 6.26, 6.71, 6.71, 6.71, 6.71, 6.71, 6.71, 6.71, 7.15, 7.15, 7.15, 7.15, 7.15, 7.15, 7.15, 7.6, 7.6, 7.6, 7.6, 7.6, 7.6, 7.6, 8.05, 8.05, 8.05, 8.05, 8.05, 8.05, 8.05, 8.05, 8.05, 8.05, 8.05, 8.05, 8.05, 8.05, 8.05, 8.05, 8.05, 7.6, 7.6, 6.71, 6.71, 7.15, 8.05, 8.05, 8.49, 8.49, 8.49, 8.49, 8.49, 8.49, 8.49, 8.49, 8.49, 1.34, 1.34, 1.34, 1.79, 1.79, 1.79, 2.24, 2.24, 2.24, 2.24, 2.68, 2.68, 2.68, 3.13, 3.13, 3.13, 3.58, 3.58, 3.58, 3.58, 4.02, 4.02, 4.02, 4.47, 4.47, 4.47, 4.92, 4.92, 4.92, 4.92, 5.36, 5.36, 5.36, 5.36, 5.36, 5.81, 5.81, 5.81, 5.81, 5.81, 6.26, 6.26, 6.26, 6.26, 6.26, 6.71, 6.71, 6.71, 6.71, 6.71, 6.71, 6.71, 7.15, 7.15, 7.15, 7.15, 7.15, 7.15, 7.15, 7.15, 7.15, 7.6, 7.6, 7.6, 7.6, 7.6, 7.6, 7.6, 8.05, 8.05, 8.05, 8.05, 8.05, 8.05, 8.05, 8.05, 8.05, 8.05, 8.05, 8.05, 8.05, 8.05, 7.6, 7.6, 7.15, 6.71, 6.71, 7.15, 8.05, 8.05, 8.49, 8.49, 8.49, 8.49, 8.49, 8.49, 8.49, 8.49, 1.34, 1.34, 1.34, 1.79, 1.79, 1.79, 2.24, 2.24, 2.24, 2.24, 2.68, 2.68, 2.68, 3.13, 3.13, 3.13, 3.58, 3.58, 3.58, 3.58, 4.02, 4.02, 4.02, 4.47, 4.47, 4.47, 4.92, 4.92, 4.92, 4.92, 5.36, 5.36, 5.36, 5.36, 5.36, 5.81, 5.81, 5.81, 5.81, 5.81, 6.26, 6.26, 6.26, 6.26, 6.26, 6.71, 6.71, 6.71, 6.71, 6.71, 6.71, 6.71, 7.15, 7.15, 7.15, 7.15, 7.15, 7.15, 7.15, 7.15, 7.15, 7.6, 7.6, 7.6, 7.6, 7.6, 7.6, 7.6, 8.05, 8.05, 8.05, 8.05, 8.05, 8.05, 8.05, 8.05, 8.05, 8.05, 8.05, 8.05, 8.05, 8.05, 7.6, 7.6, 7.15, 6.71, 6.26, 6.71, 7.15, 7.6, 8.49, 8.49, 8.94, 8.94, 8.94, 8.49, 8.49, 8.49]}]